GFSFLT2_500_spd_000.txt.gz
Wind_Speed
21 24 26 28 27 26 26 25 24 25 27 28 28 27 24 23 22 23 24 25 26 23 23 25 25 25 26 25 26 25 18 16
21 22 21 21 20 22 24 25 24 27 27 27 26 26 25 22 20 18 17 16 18 18 16 17 19 17 17 17 20 22 22 23
13 16 18 19 17 18 19 19 18 18 19 20 20 17 16 16 17 18 19 19 20 21 19 19 19 18 18 16 17 18 22 27
11 4 2 2 6 8 9 9 11 12 12 13 16 18 20 21 21 23 24 26 27 28 28 25 23 22 20 20 21 20 22 25
12 13 12 12 14 17 19 20 20 22 23 22 24 25 25 27 27 29 28 29 30 32 32 31 30 30 29 27 26 25 25 30
16 15 16 18 20 21 22 24 24 26 28 28 29 31 30 30 31 32 33 34 34 34 35 36 36 35 34 36 36 31 30 30
17 20 22 22 25 26 26 27 28 29 31 31 32 34 35 35 35 35 35 36 35 35 35 37 39 39 38 37 38 38 36 34
20 22 24 27 28 29 30 30 31 32 32 33 34 35 35 36 36 37 38 38 38 38 38 38 39 40 40 42 41 40 41 39
24 26 25 26 27 30 31 32 34 35 35 35 38 39 40 40 39 40 40 41 42 43 43 43 42 41 41 42 44 47 44 44
22 23 26 28 30 31 33 35 37 39 41 43 45 45 47 47 46 48 48 48 49 49 49 50 50 50 50 48 45 48 51 50
23 25 26 30 34 37 38 39 42 46 47 47 49 50 52 53 53 53 55 56 56 56 56 54 56 57 58 58 56 52 51 55
30 32 36 40 41 41 45 45 46 47 49 51 53 54 56 57 58 57 58 59 59 59 58 60 63 64 64 64 62 59 58 55
41 43 44 44 45 48 49 51 52 53 55 57 56 55 57 59 61 60 62 62 61 61 63 65 68 70 69 69 68 65 60 61
40 44 46 48 49 52 55 55 55 56 57 58 60 60 60 60 61 63 63 61 61 63 65 67 69 71 71 73 71 65 65 60
34 37 44 49 52 54 55 57 56 56 59 59 59 60 61 61 62 63 64 63 63 64 67 69 70 72 72 72 70 68 61 59
35 38 43 47 49 51 56 58 60 61 60 59 60 61 61 62 62 62 62 65 67 68 69 69 65 64 64 68 69 70 65 61
46 48 48 52 53 53 57 57 55 56 57 58 59 59 57 58 63 66 67 66 66 70 72 72 67 65 65 67 65 65 66 65
47 49 52 54 57 58 55 57 59 61 60 59 60 61 64 67 66 65 67 69 69 69 69 69 69 68 67 67 66 64 60 62
53 54 57 58 60 61 61 59 61 60 61 62 66 68 69 67 68 68 67 67 65 62 68 66 67 70 68 67 68 69 68 65
59 59 60 61 61 61 62 62 61 61 63 67 67 69 71 71 70 68 65 62 64 65 66 61 65 71 69 69 70 71 69 67

GFSFLT2_500_spd_003.txt.gz
Wind_Speed
22 24 24 22 21 21 23 24 25 26 26 27 27 27 27 25 23 21 21 21 18 14 11 13 13 13 13 15 18 25 24 23
22 21 19 18 19 22 20 19 20 20 19 17 17 16 14 13 12 13 13 13 14 15 15 14 12 13 14 13 11 10 14 19
11 11 12 12 12 15 16 18 19 19 20 21 20 19 19 21 21 20 19 20 21 23 24 22 21 19 18 18 18 15 13 13
11 9 9 10 11 13 18 19 20 22 25 26 25 25 25 26 26 26 26 26 26 27 27 27 26 24 22 21 22 19 20 19
11 10 10 12 13 16 20 24 26 27 28 29 30 30 29 29 29 29 29 30 31 31 31 31 30 30 29 28 27 26 25 22
16 15 16 19 21 22 24 26 27 29 31 32 32 33 35 34 34 33 32 31 31 32 32 33 33 33 33 33 31 31 31 29
23 25 24 23 23 24 26 27 28 29 31 33 34 34 34 35 36 36 36 35 35 34 33 34 35 35 35 36 36 35 34 34
24 25 27 26 26 28 29 30 31 32 33 34 36 38 39 39 41 42 42 41 42 42 42 42 42 42 42 40 40 39 38 37
26 27 28 29 29 30 31 32 35 38 41 42 43 45 46 46 46 46 46 46 46 46 48 49 49 48 48 47 45 45 45 45
24 26 28 29 31 34 38 41 42 43 44 47 49 50 51 52 52 51 50 51 51 52 52 52 52 53 54 53 51 49 48 48
28 31 34 37 39 41 44 45 45 47 51 53 55 56 56 57 57 56 56 56 56 56 57 58 57 57 57 56 55 54 54 54
36 37 40 42 43 45 48 50 50 50 52 54 55 57 58 58 59 60 62 62 61 60 60 61 62 62 62 60 59 60 60 60
34 36 39 43 45 47 48 50 51 53 55 56 56 58 60 61 61 61 62 60 61 61 62 63 64 64 64 63 63 63 64 64
32 34 39 44 46 48 49 51 52 53 55 59 62 64 64 63 61 60 61 62 62 61 60 59 60 61 62 62 63 65 69 69
36 40 44 48 49 52 52 52 55 55 56 58 60 62 62 63 63 62 61 60 60 60 60 59 60 62 63 65 66 67 69 69
41 44 49 51 51 52 54 56 57 57 59 60 60 60 61 62 61 59 60 62 66 66 66 65 65 63 64 64 65 69 72 68
47 52 54 53 54 56 59 60 59 57 57 57 58 59 59 59 60 62 64 65 66 69 67 67 67 67 71 72 70 68 69 69
52 54 57 59 59 60 59 58 58 59 61 62 62 63 64 66 67 68 65 65 64 65 66 67 70 70 70 69 71 69 70 68
56 58 58 57 57 56 56 57 59 61 63 65 67 69 69 67 68 69 70 67 67 67 68 67 67 68 66 65 70 68 69 68
57 56 57 57 58 59 61 63 64 67 70 71 71 72 74 75 76 76 75 71 66 65 64 66 65 65 63 68 70 71 73 73

GFSFLT2_500_spd_006.txt.gz
Wind_Speed
20 20 21 21 20 20 21 20 18 16 17 18 19 19 19 18 17 16 16 17 16 11 11 12 12 12 11 12 16 20 23 25
11 12 12 12 12 11 10 11 14 15 15 16 17 17 17 17 19 20 20 20 21 20 19 18 17 17 16 14 14 16 16 18
12 13 12 13 12 13 15 16 19 21 23 24 23 23 23 24 25 25 24 23 23 23 24 23 22 21 21 21 20 18 17 17
12 15 17 17 17 19 21 22 23 24 26 25 25 24 24 25 25 26 25 26 26 26 26 26 26 24 24 24 24 23 22 22
17 16 16 17 18 18 20 22 24 25 27 27 28 28 28 29 29 28 28 27 27 28 28 27 28 26 25 25 26 28 27 27
17 18 17 16 18 20 23 23 24 25 27 28 29 31 32 32 32 34 36 37 37 37 36 34 33 32 31 31 30 29 29 31
21 22 23 23 23 23 24 26 27 28 29 32 33 34 36 37 39 40 40 39 38 40 41 42 41 40 40 39 39 37 34 33
23 23 25 26 28 29 30 31 32 33 36 39 40 40 41 41 42 44 45 44 44 44 43 43 44 45 44 43 43 43 42 40
28 28 29 31 33 34 35 37 39 40 44 47 47 46 47 48 48 49 47 47 48 49 47 46 47 48 49 49 48 48 48 47
25 29 33 34 35 37 39 42 43 45 46 47 47 47 48 48 49 50 51 50 51 51 52 53 54 54 55 55 54 54 53 52
32 35 38 41 42 42 44 45 46 47 47 48 50 51 52 54 55 55 56 56 56 57 58 58 58 58 57 56 57 57 56 56
36 39 43 44 45 43 41 44 48 50 52 53 53 53 54 56 57 60 61 60 59 59 58 58 58 58 58 59 60 59 58 57
36 39 39 42 45 46 47 51 51 51 52 53 55 57 59 59 58 58 58 59 59 58 58 59 60 61 60 59 60 61 60 60
37 40 43 48 49 49 52 52 52 52 53 52 54 56 57 58 59 59 59 61 63 62 59 55 55 55 58 58 59 60 61 63
40 43 46 52 52 54 56 54 54 54 54 54 55 54 56 58 60 61 62 62 61 62 62 62 61 59 57 60 63 62 60 60
42 44 51 52 54 55 54 53 53 53 54 55 56 57 59 60 61 63 63 65 65 65 64 66 66 66 65 60 57 60 62 62
47 50 50 51 53 53 54 56 57 57 57 59 60 62 64 66 67 68 67 68 67 67 67 67 69 70 70 68 65 60 61 63
49 48 49 53 53 56 58 58 60 61 62 63 64 65 67 69 70 72 73 74 75 76 75 74 72 65 66 65 65 65 66 66
50 51 52 52 57 58 59 61 65 68 69 70 71 71 70 72 76 78 78 79 79 78 76 73 71 69 63 61 64 63 64 66
53 53 55 60 61 62 63 65 67 71 73 72 74 77 80 79 76 78 79 79 80 79 76 72 68 65 59 63 67 63 66 67

GFSFLT2_500_spd_009.txt.gz
Wind_Speed
11 12 12 12 11 10 9 9 9 12 14 16 18 18 18 18 19 20 19 18 16 14 14 15 16 17 18 16 15 15 17 21
11 13 15 15 13 11 12 14 16 17 17 18 18 18 17 18 20 21 21 21 20 21 21 19 18 17 19 20 20 19 19 19
14 14 15 16 17 17 17 17 18 19 19 19 19 18 18 18 19 20 20 21 22 22 22 22 22 22 20 20 21 22 22 22
14 15 16 17 16 16 18 18 19 20 20 21 22 22 23 23 22 22 22 22 22 22 23 23 23 23 22 22 21 22 22 24
11 13 13 15 17 17 19 20 20 22 23 23 23 26 28 29 28 28 30 31 30 29 29 28 27 27 27 26 25 24 24 24
12 13 15 17 19 20 22 24 26 28 29 29 30 32 35 36 37 36 37 37 37 37 36 34 33 32 33 34 34 33 33 32
18 19 20 21 23 25 28 30 33 35 36 36 37 39 41 41 41 40 40 41 41 41 40 38 38 39 38 36 36 37 38 39
24 26 28 29 30 32 34 36 38 38 39 39 40 40 41 40 40 40 40 40 41 42 43 43 44 43 42 41 40 40 41 42
26 29 30 30 31 33 34 37 39 40 39 38 39 40 40 40 42 43 43 43 43 45 46 46 47 48 48 47 47 47 46 46
29 32 34 35 37 39 40 41 42 42 42 43 43 44 44 44 45 45 46 45 46 48 51 52 52 52 52 52 52 53 52 51
31 36 40 41 41 42 42 42 44 46 47 49 51 51 51 50 50 50 52 51 52 51 50 50 50 49 50 51 52 53 53 53
37 39 40 40 42 43 46 45 48 46 49 50 50 50 50 50 49 48 50 50 51 51 52 51 51 52 53 53 52 53 55 54
38 40 41 42 44 48 48 50 53 52 51 51 50 50 51 53 55 55 55 56 55 56 58 58 58 57 58 57 56 55 54 54
38 38 41 46 48 49 50 52 52 52 51 51 53 54 55 54 54 56 57 58 58 58 58 60 61 62 63 63 61 58 58 57
39 41 45 48 49 52 52 51 52 52 53 55 56 56 57 58 59 61 61 62 63 63 64 65 65 65 61 63 64 62 60 59
42 45 49 50 49 49 51 53 53 54 58 59 60 61 63 63 64 65 66 67 67 69 70 69 70 70 70 65 67 64 66 62
45 47 48 49 50 52 54 56 57 60 62 63 64 65 66 67 68 68 69 70 70 72 74 73 70 72 72 72 70 73 70 68
46 47 49 51 54 56 57 59 62 65 67 69 70 71 71 74 77 75 75 76 77 76 76 77 75 74 75 75 71 72 72 69
47 48 50 53 56 58 61 65 68 69 71 73 75 76 77 79 80 82 81 80 79 78 77 76 76 77 76 75 72 70 70 68
51 52 56 60 61 65 69 71 73 74 75 75 76 79 81 84 86 87 87 83 81 82 81 81 80 77 75 72 64 62 63 65

GFSFLT2_500_spd_012.txt.gz
Wind_Speed
6 5 7 8 7 8 8 8 7 9 11 13 14 14 15 15 16 18 17 17 16 15 15 14 12 13 14 15 13 14 16 17
4 6 6 6 5 6 6 8 10 11 13 14 14 13 13 13 13 14 14 16 17 17 16 17 17 17 16 18 19 16 15 16
5 6 8 10 11 12 13 14 15 16 17 17 17 17 17 17 18 18 17 17 18 20 21 20 19 19 20 19 19 19 20 20
7 9 11 13 14 17 18 19 20 20 21 21 21 21 21 22 24 25 25 24 24 24 23 23 24 23 24 24 23 23 22 21
14 15 16 17 17 18 18 19 21 23 25 27 29 29 30 32 33 34 33 32 32 32 31 31 31 30 29 28 28 30 29 28
15 15 15 16 18 21 24 25 27 29 30 31 32 34 35 35 36 37 37 36 35 35 35 35 35 34 34 33 33 34 35 35
19 20 21 22 25 28 30 31 32 32 32 34 35 35 35 35 36 37 38 37 37 38 38 38 37 38 38 38 38 38 38 38
23 25 26 26 29 31 32 34 35 35 34 35 36 37 39 40 40 41 41 40 41 42 42 42 41 42 42 42 42 43 43 43
26 27 29 30 32 35 36 36 36 38 39 38 40 42 42 42 42 42 41 40 39 41 41 42 44 45 46 46 46 47 47 46
28 30 33 35 37 38 38 37 38 40 43 44 46 43 45 44 44 44 44 43 42 41 42 41 42 43 44 45 45 46 46 47
33 35 35 36 38 40 39 41 44 44 44 47 48 48 47 47 46 45 46 47 47 49 49 48 48 47 48 48 47 47 47 47
37 38 37 40 42 42 42 45 47 48 50 51 50 50 49 49 49 51 53 54 55 56 56 57 56 55 56 56 53 53 53 52
39 39 40 43 45 46 48 50 52 51 52 53 52 53 52 53 53 55 57 59 59 60 62 62 62 61 62 60 60 60 58 57
40 40 42 45 48 50 52 54 53 52 53 54 54 54 56 57 60 62 63 65 66 65 66 66 65 63 64 64 65 64 64 60
42 43 46 49 52 53 54 54 54 55 56 58 59 62 63 65 67 68 69 70 71 71 71 72 72 69 70 70 69 69 70 70
44 47 50 52 52 52 53 54 55 58 60 62 63 65 66 69 71 73 73 73 73 74 74 74 75 72 74 73 71 67 68 70
48 48 48 50 52 53 55 56 59 63 64 65 67 70 72 73 75 76 76 75 74 74 75 77 80 78 76 73 69 73 67 70
45 47 50 52 53 54 56 61 65 67 68 70 73 75 76 76 76 76 76 78 79 82 81 79 79 80 79 78 76 73 70 70
47 52 54 54 57 60 63 67 69 70 72 74 75 76 77 79 80 81 83 83 84 83 83 83 82 80 83 85 85 85 82 81
54 54 55 58 61 65 69 69 71 73 73 73 75 79 81 82 82 84 84 85 82 85 89 92 91 92 92 88 87 86 82 79

GFSFLT2_500_spd_015.txt.gz
Wind_Speed
6 5 4 4 5 5 5 6 7 8 10 12 12 13 12 12 12 12 12 12 13 13 14 15 17 17 18 17 17 17 17 16
3 1 2 4 6 7 8 10 11 13 15 16 16 18 18 16 16 16 17 17 17 17 17 17 17 18 20 21 21 20 20 20
5 7 10 11 12 14 15 17 18 18 18 19 20 20 21 21 23 24 26 26 27 26 25 24 23 21 20 20 22 23 25 24
12 13 14 15 16 16 17 18 19 20 21 23 24 24 25 27 27 29 30 31 32 31 31 30 29 29 28 28 27 25 25 27
14 16 16 18 19 20 20 20 22 24 26 26 27 28 29 31 32 32 32 32 34 33 33 33 33 33 32 30 30 30 30 30
16 17 19 20 22 22 24 25 27 29 31 31 31 30 31 33 34 35 36 37 37 38 38 37 37 36 35 35 34 33 34 34
18 19 22 24 27 28 29 30 32 33 33 32 32 33 34 35 39 40 40 39 40 39 39 39 39 40 40 40 40 39 39 39
22 24 26 28 31 33 33 33 34 35 35 35 36 38 39 39 42 40 41 41 40 38 39 39 40 40 40 40 41 42 43 43
27 29 29 32 33 34 35 36 38 39 38 38 40 41 40 42 41 40 38 38 38 39 39 39 40 41 41 41 42 43 45 45
30 31 32 33 35 36 37 39 40 41 42 44 44 46 46 45 45 46 45 45 44 44 45 46 46 46 46 46 47 47 48 48
34 35 36 38 39 40 42 44 46 47 48 49 50 51 50 50 51 52 52 52 52 53 54 53 52 52 52 54 53 54 56 55
37 39 41 42 45 45 47 49 52 52 53 53 54 53 52 54 55 56 57 57 58 58 60 60 62 64 63 62 62 63 61 61
41 42 42 46 48 49 51 54 56 56 57 57 56 55 55 56 59 60 61 62 63 64 66 67 67 68 69 68 69 68 67 67
43 45 46 49 50 51 54 56 58 58 58 59 60 58 59 62 64 66 66 67 69 71 72 72 71 72 73 73 73 72 72 73
46 47 48 50 52 54 57 58 58 58 59 59 59 61 64 67 68 68 70 72 74 74 75 74 74 73 72 73 73 74 72 71
47 50 51 52 53 56 55 56 58 58 60 61 62 66 69 70 71 72 73 74 74 75 75 76 76 75 75 75 76 74 72 74
51 52 52 51 52 54 56 57 58 60 63 65 68 70 71 72 73 73 74 75 77 79 79 78 78 79 79 79 79 76 74 75
48 48 48 52 54 56 57 58 60 63 66 69 71 72 73 73 75 76 78 79 78 78 77 77 77 79 81 82 81 80 80 79
45 48 53 56 56 58 60 63 65 68 71 73 74 73 74 77 79 79 78 78 79 79 80 81 80 81 82 84 85 84 87 87
49 53 56 58 61 62 65 68 71 72 75 77 76 75 78 82 81 80 81 81 83 84 85 87 87 85 86 90 92 89 89 83

GFSFLT2_500_spd_018.txt.gz
Wind_Speed
5 6 5 5 5 6 8 9 10 11 12 13 14 15 15 15 15 15 15 16 16 16 18 18 18 18 19 20 21 21 21 19
2 4 5 7 8 10 12 13 14 15 16 16 17 18 19 19 20 19 21 24 24 24 24 24 23 22 22 21 22 22 23 23
8 9 11 10 13 14 14 16 16 18 19 21 21 23 23 20 25 24 25 27 27 26 27 27 26 27 27 26 26 24 25 25
9 10 11 14 15 17 19 20 21 21 21 23 25 26 25 27 25 27 27 28 29 28 29 30 29 28 27 26 29 29 28 28
9 12 15 17 18 20 21 23 24 24 25 27 28 27 27 28 29 30 30 31 35 36 36 34 35 34 33 32 30 30 31 31
11 15 16 21 23 24 25 26 27 28 28 29 30 30 30 32 34 37 39 39 40 40 39 39 38 35 34 36 35 35 35 35
16 19 22 25 25 28 30 31 32 31 31 32 34 34 34 36 38 39 39 41 41 38 38 37 35 34 33 33 34 35 36 37
22 34 17 26 28 30 33 34 35 36 36 36 35 36 37 40 40 40 40 38 37 36 36 36 36 36 35 34 34 35 37 37
20 20 34 31 32 33 36 36 39 41 42 41 41 42 43 43 43 41 40 40 41 41 40 39 39 40 41 42 44 43 41 41
32 32 32 33 37 38 38 41 44 46 47 48 47 45 46 46 47 46 45 46 48 50 50 49 49 50 50 51 50 49 50 50
33 38 39 41 40 40 43 47 48 50 52 54 53 52 51 51 50 50 49 50 52 54 56 56 58 58 57 57 58 59 59 59
37 40 40 42 46 45 49 51 52 53 54 57 55 56 54 55 55 54 54 55 57 59 60 61 62 63 64 64 64 65 66 66
39 41 45 46 49 51 52 54 56 58 59 59 57 59 57 58 58 59 60 63 64 66 66 65 66 68 68 68 67 67 67 68
42 44 47 48 51 53 54 56 58 58 58 59 60 61 60 60 61 65 66 67 69 70 70 70 70 71 72 73 73 72 71 70
45 47 47 49 53 56 55 55 56 57 59 61 63 62 63 65 69 70 70 72 73 73 75 75 76 74 75 76 76 76 76 73
46 49 51 51 52 53 53 53 57 60 61 62 63 65 68 71 72 73 73 75 75 77 76 75 76 76 75 74 74 76 77 77
48 50 53 53 51 52 54 57 58 60 62 64 66 68 72 74 76 77 77 79 80 81 81 80 79 78 77 78 77 78 79 79
48 49 49 53 55 52 53 58 60 61 64 67 70 74 75 76 79 80 80 79 77 79 82 85 83 82 81 82 82 82 82 83
45 44 48 51 54 58 63 63 65 69 73 76 76 77 78 80 82 84 85 84 81 86 90 89 89 88 85 84 85 87 88 90
47 48 51 54 57 60 63 67 72 75 77 80 80 80 80 82 83 84 87 92 91 96 93 89 86 85 86 86 87 88 87 82

GFSFLT2_500_spd_021.txt.gz
Wind_Speed
7 4 3 3 3 6 7 10 11 12 12 12 13 13 16 18 17 19 19 20 21 22 24 23 23 22 20 19 21 21 23 21
3 1 2 4 8 9 11 14 15 17 17 16 18 17 20 23 22 21 21 22 22 23 24 22 23 24 24 24 23 22 26 22
3 5 7 9 10 12 13 16 17 19 20 20 21 21 23 23 25 24 24 23 23 24 25 26 26 26 24 24 25 24 27 29
6 6 6 10 12 14 15 18 20 22 24 26 25 25 24 22 23 24 25 27 29 31 32 32 32 31 29 28 28 27 27 27
9 10 11 12 13 17 19 21 21 23 26 27 27 27 28 29 29 29 31 33 34 34 34 35 34 32 33 32 29 29 29 29
14 14 14 18 20 23 22 24 26 27 27 29 31 32 32 32 33 35 36 36 37 37 38 37 33 31 29 29 31 30 28 27
14 19 21 19 22 24 26 28 31 32 31 33 33 34 35 35 37 38 39 39 39 38 37 35 35 35 34 31 29 31 32 31
17 25 8 22 22 26 30 33 35 34 34 38 38 37 40 40 41 40 38 37 37 36 36 35 34 36 36 36 35 34 34 35
26 24 29 20 30 31 34 32 35 37 44 43 43 42 45 45 45 43 41 41 41 41 41 41 42 43 42 42 43 43 43 41
29 34 31 35 35 36 40 42 42 47 48 49 50 47 46 47 46 47 46 46 46 46 47 48 51 53 52 52 51 51 50 49
30 32 35 37 34 42 44 46 49 51 53 55 56 55 53 49 50 52 52 52 53 53 54 55 56 58 59 58 56 56 55 55
35 37 40 41 45 46 47 50 50 53 57 56 54 54 53 55 58 59 59 58 57 59 60 61 63 63 62 62 62 61 61 62
36 39 42 45 48 49 51 52 55 57 58 57 57 57 58 57 57 59 62 62 63 65 67 68 69 71 73 72 71 70 69 70
39 42 45 48 49 50 52 54 56 54 54 56 58 60 60 62 63 64 65 68 70 72 73 74 75 77 80 80 79 77 76 74
44 46 47 49 51 51 52 51 50 52 54 56 59 61 61 64 67 69 73 76 78 80 80 80 79 79 81 82 82 83 82 78
45 47 46 47 49 50 50 49 51 53 55 58 60 63 67 70 74 78 79 81 82 82 83 84 84 84 81 82 83 84 84 81
46 48 50 50 47 46 47 49 52 54 57 60 64 68 73 77 80 82 82 83 83 83 84 84 84 84 84 83 84 86 92 90
42 44 47 51 51 52 52 51 53 56 60 66 72 76 79 82 84 84 84 82 83 83 83 84 84 84 86 89 92 91 92 96
42 41 43 47 50 51 54 59 63 67 73 77 80 82 85 86 85 85 84 85 85 84 83 84 87 87 88 88 89 90 88 88
43 44 46 47 50 55 58 63 68 73 79 82 83 85 84 81 81 81 81 82 82 82 82 83 84 83 81 80 76 70 65 65

GFSFLT2_500_spd_024.txt.gz
Wind_Speed
10 7 4 3 4 6 7 9 11 12 13 15 17 18 20 20 21 23 23 23 23 23 24 24 24 23 24 25 25 26 27 24
7 5 5 7 7 9 10 11 13 15 18 19 21 22 24 25 27 27 24 24 24 24 24 23 23 23 24 24 24 25 27 28
6 7 10 10 8 9 11 13 17 18 19 20 21 23 24 26 26 26 25 26 27 27 28 29 30 30 28 28 28 28 27 26
10 10 11 8 9 10 13 17 19 20 20 21 22 23 24 25 26 27 28 29 31 32 32 32 33 34 33 31 30 30 30 29
12 10 13 11 12 15 18 20 23 24 25 24 25 24 26 28 29 31 33 35 36 37 36 36 36 35 35 32 30 30 29 28
15 15 12 15 15 16 17 22 24 26 29 29 28 30 32 33 34 35 36 37 37 36 36 36 36 35 34 32 33 33 32 31
21 17 18 16 18 16 24 26 28 26 27 27 27 35 36 37 38 39 39 37 35 35 34 33 32 34 35 35 33 32 35 36
15 17 18 10 26 27 31 31 32 35 32 32 38 39 40 41 42 42 40 37 35 35 36 35 35 35 34 38 38 38 38 40
20 20 17 22 23 27 31 34 39 38 39 41 42 42 42 42 41 41 41 41 40 42 42 43 43 43 43 43 45 47 47 46
24 25 24 27 32 31 33 39 42 41 46 46 47 46 42 39 39 41 44 46 46 45 46 46 47 48 48 49 51 53 54 55
30 29 32 34 37 39 41 42 42 47 50 51 51 50 48 47 45 46 46 47 49 50 52 53 54 54 54 54 55 56 58 59
31 35 36 40 44 47 42 43 49 50 51 52 51 50 50 51 49 50 51 52 52 53 56 59 61 63 63 63 64 66 67 68
35 41 46 47 49 49 48 53 53 53 53 52 51 52 52 54 56 56 56 58 60 64 66 68 70 71 71 71 72 74 74 75
42 45 48 50 52 52 54 54 55 54 53 54 56 57 58 59 60 63 66 70 73 75 77 77 79 79 79 79 78 76 77 79
41 45 48 49 51 52 53 52 52 51 52 54 56 58 60 63 67 72 75 79 81 83 84 85 86 84 85 85 84 83 82 81
40 44 48 51 52 52 51 51 51 53 54 55 59 61 64 69 74 77 80 83 86 87 88 87 87 86 85 87 88 87 86 81
44 48 49 50 48 45 45 46 48 49 52 56 60 65 70 75 79 82 84 85 85 85 84 83 84 85 84 84 84 86 88 86
52 51 48 45 44 43 42 44 49 54 59 64 69 74 78 82 85 87 88 89 87 85 83 83 85 86 87 88 88 88 89 91
40 38 39 38 38 41 47 52 58 63 67 72 78 82 86 89 89 90 88 85 84 84 84 85 86 87 89 89 90 88 87 87
31 31 32 36 40 46 52 57 63 69 73 78 83 87 90 92 91 89 87 85 85 87 88 88 86 85 81 77 72 68 66 64

GFSFLT2_500_spd_027.txt.gz
Wind_Speed
13 11 10 8 8 10 10 11 12 15 16 17 19 20 22 25 26 27 29 30 30 28 27 27 27 27 27 28 29 29 28 29
11 11 9 9 10 11 12 13 14 16 18 20 22 23 25 25 26 27 27 28 28 28 28 28 29 29 30 31 31 32 31 30
11 11 10 11 12 13 14 15 18 21 22 22 22 22 23 23 25 26 28 28 29 31 32 34 35 34 33 32 32 32 30 30
11 11 11 12 12 14 17 18 21 22 22 24 24 24 24 25 26 28 29 30 32 34 35 35 35 35 36 36 34 32 29 28
9 11 12 11 16 19 20 20 22 23 24 27 27 28 26 27 31 31 31 31 33 34 35 33 33 33 34 35 33 33 32 31
9 12 13 14 19 23 24 21 22 28 27 27 29 27 26 34 34 34 33 34 35 34 33 31 30 31 32 33 33 33 34 35
15 13 18 21 21 16 22 23 28 29 28 31 30 31 34 34 37 37 37 34 33 33 32 32 32 32 33 33 33 34 35 36
19 17 16 20 15 20 25 29 33 30 33 35 36 38 37 37 39 40 39 36 35 34 34 33 33 34 34 36 36 38 39 41
20 20 20 16 21 24 27 30 35 39 40 37 40 44 42 41 40 39 39 40 40 38 37 38 39 38 39 39 40 42 44 45
20 22 21 26 29 34 38 39 42 38 42 44 46 47 45 43 40 39 39 40 40 42 42 41 42 43 43 45 48 50 52 53
19 22 26 21 37 42 43 44 44 45 44 49 50 50 48 45 42 42 42 43 42 43 44 47 50 52 54 56 57 58 60 60
23 27 29 38 32 44 46 48 42 43 49 54 53 51 49 48 47 46 47 49 50 53 56 58 61 62 62 62 63 66 67 66
27 30 39 43 47 45 49 48 53 53 55 55 53 50 49 48 50 52 55 58 60 62 64 67 69 71 71 72 72 73 75 75
34 39 43 48 50 52 52 54 56 57 56 54 52 51 52 54 57 61 65 68 71 74 76 78 79 81 81 81 81 79 79 79
37 41 45 49 52 54 56 55 55 54 52 50 50 53 57 61 65 69 72 76 79 82 84 86 86 87 88 89 89 88 88 83
44 44 48 52 54 59 58 55 53 52 50 53 56 60 64 67 71 74 77 81 83 86 87 88 89 88 86 86 85 87 88 92
45 46 51 54 54 48 47 46 47 50 52 55 59 63 68 71 75 79 83 86 88 89 90 90 89 87 88 87 88 89 91 92
45 48 54 48 44 43 43 45 48 52 56 61 65 68 73 78 82 86 89 90 89 89 88 88 88 89 90 92 93 93 93 95
48 53 44 38 38 39 43 47 52 57 61 67 71 76 81 85 87 88 90 90 90 90 90 89 90 90 88 86 85 86 85 82
52 39 35 37 40 44 48 54 58 63 68 72 77 80 84 88 91 93 95 94 94 95 96 94 87 79 70 66 74 69 65 66

GFSFLT2_500_spd_030.txt.gz
Wind_Speed
9 8 9 9 9 10 11 12 13 15 17 18 20 23 25 27 28 28 25 24 25 25 26 26 26 27 28 29 29 29 30 31
8 10 10 11 12 12 12 15 17 16 18 21 24 27 27 27 28 27 27 28 28 29 28 30 30 30 32 33 33 31 29 30
9 10 11 13 13 14 15 17 17 18 20 21 22 25 27 29 28 28 28 30 31 30 30 32 33 34 34 34 33 31 31 29
6 9 10 13 14 16 18 21 19 19 20 22 25 26 28 30 30 28 30 34 34 34 34 34 34 34 34 33 33 32 30 28
9 10 11 13 15 18 20 23 22 23 23 26 29 28 28 29 30 32 37 35 36 36 36 35 33 32 31 31 31 32 32 31
7 10 13 16 19 19 21 25 26 26 27 28 27 30 33 32 35 36 37 37 36 36 35 32 31 30 29 30 32 32 33 34
10 16 18 19 21 21 25 18 22 27 30 29 31 33 34 37 42 41 40 38 37 35 34 32 32 31 30 30 30 31 31 32
17 20 21 21 23 23 19 21 24 29 32 32 30 36 35 40 40 41 41 41 39 36 35 33 33 33 33 34 34 34 35 36
21 22 23 23 20 22 24 21 25 31 33 36 42 44 41 42 42 42 41 40 39 39 38 37 37 35 35 37 38 40 42 45
23 21 21 21 25 22 25 24 38 35 38 47 47 44 47 48 46 43 41 40 39 39 39 39 41 42 45 47 49 51 53 54
21 20 26 20 24 34 35 41 34 40 51 50 49 51 53 51 47 43 40 38 39 42 45 47 49 52 55 56 58 60 61 62
19 24 27 29 32 26 46 45 50 51 52 54 55 54 54 50 45 42 44 46 48 52 55 58 59 61 64 65 67 70 71 72
23 16 24 35 40 45 46 51 53 54 56 56 52 50 46 43 46 50 54 57 60 62 65 68 70 73 75 76 78 79 80 79
21 32 38 43 48 51 52 53 57 56 54 51 47 44 46 50 54 58 62 65 68 71 74 76 79 81 83 84 84 83 81 81
35 39 43 47 48 51 52 58 55 52 49 45 45 49 54 59 63 66 69 70 72 75 78 81 83 84 87 90 92 93 95 92
39 41 45 48 50 55 58 57 52 50 49 50 53 57 59 62 65 68 71 75 79 82 83 84 87 91 92 94 96 97 98 99
42 45 46 42 50 54 58 55 48 48 51 53 56 58 61 66 69 74 78 81 83 85 87 91 95 98 97 96 97 96 96 96
38 38 53 53 50 51 50 47 47 49 52 56 59 63 67 71 74 77 81 85 88 91 94 98 99 97 97 100 96 93 87 82
47 52 52 48 50 47 47 49 51 54 57 61 65 68 72 75 78 83 86 89 93 95 98 99 101 103 100 91 81 72 69 67
48 49 47 48 46 48 48 50 54 57 60 64 68 72 75 79 84 88 92 94 95 99 101 104 103 92 80 69 66 67 66 59

GFSFLT2_500_spd_033.txt.gz
Wind_Speed
12 13 11 10 8 7 9 10 12 14 16 18 19 22 24 25 26 27 27 28 28 28 27 28 29 27 27 27 28 30 30 30
11 10 11 9 8 9 11 13 14 17 17 20 22 24 23 24 25 27 29 30 31 31 31 32 33 33 33 32 30 30 31 31
11 10 7 7 9 11 13 15 16 18 19 22 21 22 26 29 29 28 29 30 31 34 36 36 34 35 36 36 35 32 29 29
6 6 6 9 12 13 15 16 19 20 21 23 24 23 27 30 31 32 30 32 36 38 38 37 34 35 36 36 36 34 32 30
5 7 8 11 13 14 17 19 20 23 24 24 25 27 28 29 33 35 35 39 41 39 38 36 35 33 32 33 34 33 33 32
6 9 12 13 16 19 21 25 26 28 23 23 26 28 31 32 31 37 38 42 43 41 39 38 37 34 32 32 32 32 30 30
8 11 13 16 20 22 23 25 28 29 25 24 28 30 30 33 40 41 39 41 44 43 42 40 37 35 33 32 32 33 32 31
11 15 18 21 22 24 28 28 29 24 25 26 26 29 38 45 42 42 43 45 45 44 43 41 38 35 35 34 35 35 35 36
17 19 21 25 28 30 30 29 24 27 28 30 30 43 44 47 48 46 45 44 42 41 40 39 37 36 37 39 41 43 44 46
18 21 23 26 31 33 29 25 23 27 35 38 42 47 47 49 50 47 44 40 38 36 37 40 42 43 46 48 51 52 54 56
22 23 25 28 32 28 17 28 26 41 41 48 53 54 52 51 48 44 40 36 37 41 44 46 49 52 55 58 60 62 64 66
19 20 21 27 27 24 32 44 39 40 47 51 56 53 49 47 44 40 39 43 46 49 53 56 58 61 64 67 69 71 72 74
21 21 24 28 24 47 48 46 47 50 52 56 55 48 44 41 41 44 47 52 55 58 62 64 65 67 68 70 72 73 74 76
26 22 32 45 49 49 49 51 52 54 59 57 48 44 43 46 49 53 57 59 61 63 64 66 68 72 75 78 80 81 81 84
27 35 42 43 46 48 51 50 53 61 56 54 51 51 52 54 56 57 59 62 64 67 69 73 78 81 84 88 91 93 94 96
33 40 40 43 46 48 45 52 57 50 49 51 53 54 55 56 58 60 63 66 70 74 79 84 86 89 91 94 95 101 105 107
33 39 42 42 49 47 57 52 50 51 51 53 54 56 58 60 63 65 71 75 78 82 86 90 91 93 98 97 101 106 111 106
37 40 44 49 49 51 50 48 50 52 53 54 56 58 60 64 67 72 76 80 84 88 91 92 93 96 98 103 106 105 91 84
37 40 43 46 47 49 49 50 51 53 54 57 59 60 63 68 72 77 81 85 88 91 91 95 98 102 106 104 93 77 69 64
33 37 40 43 47 49 51 53 53 54 57 58 60 64 68 73 78 82 85 88 92 93 97 100 104 104 96 78 66 61 57 49

GFSFLT2_500_spd_036.txt.gz
Wind_Speed
11 12 13 11 11 10 9 8 7 9 14 16 18 19 21 23 22 24 27 27 27 27 26 27 26 28 30 31 30 31 29 30
10 11 12 13 11 10 10 9 11 14 17 18 19 22 22 22 25 25 28 28 30 29 31 33 35 34 34 32 32 33 33 32
12 13 13 12 10 9 10 13 14 17 18 19 21 22 23 25 25 27 29 29 32 33 35 39 41 40 39 37 37 35 35 36
13 12 10 10 9 12 14 15 16 18 20 21 24 25 25 27 27 27 29 30 31 35 37 39 40 40 39 39 39 37 35 35
9 8 9 10 13 12 14 17 18 20 22 23 22 23 24 25 28 30 30 35 38 39 40 40 39 41 40 39 39 38 35 35
8 9 10 10 12 14 18 18 22 24 27 26 20 23 26 27 27 30 39 42 42 44 43 43 43 42 40 39 39 38 36 35
6 8 10 12 16 18 21 23 26 28 31 30 25 25 27 29 28 39 43 46 46 45 44 43 42 41 39 38 37 37 36 35
10 10 13 16 17 21 25 29 32 33 35 29 19 24 31 34 42 44 44 44 45 44 44 41 38 37 36 36 36 36 37 37
11 14 15 18 21 24 28 30 34 29 11 24 28 31 39 42 46 48 44 41 40 37 36 34 34 35 37 38 40 42 42 45
13 14 16 21 24 29 35 44 41 27 32 31 28 40 41 47 48 45 41 39 37 35 34 35 39 41 43 46 48 50 52 54
16 16 18 24 28 32 30 23 22 44 44 38 37 40 45 48 45 41 39 38 37 39 41 43 47 48 51 53 55 56 59 61
23 23 24 28 27 41 28 34 51 44 45 47 43 50 50 47 41 38 39 41 43 46 49 52 54 54 56 57 60 61 64 67
26 24 30 29 28 40 42 45 46 47 49 48 52 55 49 41 41 44 47 50 53 55 56 57 57 61 63 66 68 71 72 73
25 26 25 33 35 42 45 47 50 54 54 53 50 48 47 48 50 53 55 58 58 58 59 61 66 69 71 74 77 80 84 86
29 30 30 35 39 43 46 50 55 58 58 55 51 51 52 53 54 56 57 58 59 62 65 68 72 76 79 81 84 87 89 90
29 31 36 41 45 46 48 50 55 51 51 51 53 53 54 56 57 58 60 61 64 68 72 76 79 82 85 87 90 93 95 96
32 34 34 34 35 40 44 46 50 53 54 55 55 56 58 58 60 61 63 66 69 74 78 82 85 89 93 95 96 96 99 105
23 26 29 31 35 37 42 45 50 53 55 57 59 59 59 62 62 64 67 70 75 80 85 89 92 95 96 96 98 102 107 102
23 26 30 34 36 39 42 46 50 54 56 57 58 59 61 62 64 67 71 75 81 86 90 93 95 96 98 102 106 101 86 71
27 31 34 37 40 43 46 48 50 53 56 59 60 61 62 64 67 70 76 81 86 90 93 95 96 98 102 100 89 74 59 51

GFSFLT2_500_spd_039.txt.gz
Wind_Speed
8 5 10 11 12 11 10 10 10 8 9 13 16 17 20 21 24 25 25 22 24 23 25 26 27 30 33 35 35 32 30 31
3 10 11 11 12 9 9 8 7 8 13 16 17 19 22 24 25 25 26 25 25 26 27 30 31 35 39 42 40 35 34 32
10 11 10 10 10 10 9 8 10 13 16 18 20 23 23 25 26 25 25 26 27 28 30 33 37 41 43 44 41 40 39 38
12 8 6 7 8 9 9 11 13 15 18 22 23 25 25 28 27 25 25 26 26 30 35 39 42 46 45 43 43 42 41 41
4 7 8 9 10 10 11 12 14 19 23 25 27 28 30 29 29 30 27 24 33 40 42 44 43 44 43 41 41 41 40 40
8 11 11 11 9 10 12 15 19 24 27 27 29 30 27 31 32 22 25 33 38 43 48 45 44 44 42 41 41 39 39 38
8 10 9 9 10 12 15 18 23 26 27 30 33 33 35 23 20 31 36 42 45 47 46 45 43 41 39 38 37 36 35 34
10 9 11 13 14 17 19 23 27 29 32 34 31 26 28 28 26 40 46 45 46 47 44 41 38 36 35 34 33 34 36 37
11 14 15 15 16 20 25 26 31 35 46 43 32 23 28 34 34 40 44 45 42 39 39 36 35 33 34 36 38 41 42 44
14 14 16 17 21 23 28 33 41 39 30 31 25 40 38 41 43 43 41 40 37 37 36 36 37 39 41 43 46 47 49 51
16 19 19 20 24 28 38 36 35 31 43 41 44 44 41 45 49 48 47 41 38 39 40 43 44 46 46 48 51 51 53 55
22 20 22 24 27 35 36 37 35 46 43 42 43 47 49 51 52 49 46 45 45 47 48 50 51 52 52 52 54 57 61 63
25 27 25 27 31 35 40 42 42 40 43 45 48 52 48 48 50 48 46 49 49 48 50 52 53 55 57 57 59 63 69 73
26 29 30 30 32 33 38 43 44 44 44 47 49 49 50 52 51 53 54 53 55 56 56 56 56 60 63 67 69 71 75 79
29 30 31 31 32 36 38 37 38 41 43 46 49 51 54 56 57 58 57 58 59 60 61 62 64 66 69 73 77 80 83 85
29 29 30 31 32 32 33 35 37 40 42 45 48 51 55 58 60 61 62 62 62 62 64 67 69 72 76 80 84 88 90 91
24 23 22 25 28 31 34 37 40 44 47 50 53 55 56 58 61 62 62 63 63 66 68 71 76 79 84 89 93 95 97 101
19 21 24 27 31 34 38 41 44 48 50 53 56 59 61 62 63 64 64 65 67 69 73 78 83 87 91 95 95 97 100 104
22 25 28 31 34 38 41 44 47 50 52 55 58 59 61 62 64 66 66 68 70 74 78 83 88 91 94 94 95 100 101 94
27 30 33 36 39 42 44 47 50 53 55 57 59 61 62 64 66 67 68 71 75 79 84 87 89 91 93 95 98 92 83 74

GFSFLT2_500_spd_042.txt.gz
Wind_Speed
34 27 24 16 5 1 5 9 9 10 10 11 11 14 17 19 20 21 22 23 24 24 24 25 26 26 29 32 34 37 37 36
24 18 10 7 3 3 7 8 9 10 10 10 14 18 21 21 22 24 26 26 26 29 28 28 29 31 35 39 40 44 43 43
9 5 7 1 5 7 7 8 7 9 11 15 19 22 22 24 26 28 29 28 25 25 24 27 30 33 38 41 46 47 46 44
10 10 8 8 5 6 7 6 9 12 16 21 21 23 26 27 28 29 28 26 27 25 29 33 38 41 45 46 44 46 46 46
5 5 7 8 9 10 10 11 13 16 17 21 24 25 25 26 29 31 31 26 20 30 33 41 44 44 46 50 51 48 44 43
5 4 4 7 9 7 10 11 15 18 20 21 24 24 31 30 27 27 19 23 29 34 43 45 49 43 47 48 47 43 41 40
2 4 6 8 8 10 13 16 19 20 24 19 26 33 32 24 24 29 35 36 39 35 36 40 42 39 38 40 39 39 38 36
5 7 7 7 11 14 15 18 23 29 24 27 31 32 28 17 36 30 35 41 47 46 43 41 38 38 34 34 33 34 35 36
7 7 8 11 14 16 18 23 25 32 39 36 20 32 41 38 37 38 41 41 42 43 42 39 36 35 37 36 37 40 42 44
8 8 10 14 15 18 21 25 30 30 34 35 31 41 33 33 35 40 42 43 41 39 39 38 39 40 42 42 42 45 45 48
10 13 14 16 20 25 27 31 36 36 36 33 45 38 36 36 37 39 41 42 44 44 43 43 43 43 44 45 46 48 50 51
15 16 17 20 22 25 30 34 35 33 36 37 34 35 36 37 38 41 44 47 49 51 51 49 48 49 49 50 50 48 50 54
20 22 25 24 25 30 33 34 34 37 38 35 36 37 37 39 41 43 45 48 51 53 52 51 51 51 51 51 52 55 56 60
23 26 27 27 29 26 26 29 30 31 34 37 38 41 43 45 47 51 53 54 55 57 58 57 54 54 55 56 57 58 63 68
25 25 25 24 23 24 25 27 30 33 37 41 44 47 49 51 52 53 55 58 59 59 60 61 60 60 63 65 67 69 72 76
26 25 22 22 21 24 27 30 34 37 40 42 45 48 51 53 55 57 58 59 60 61 63 63 64 65 68 72 76 79 82 83
22 21 19 22 24 27 31 35 38 41 45 47 51 53 53 53 55 57 61 63 63 64 65 65 67 70 74 78 82 86 89 92
19 21 21 25 29 33 37 40 43 46 48 50 53 55 57 60 60 63 66 67 67 68 67 68 71 75 80 84 87 90 92 96
22 25 27 30 35 39 41 45 47 49 51 53 55 55 58 61 62 64 66 66 67 67 68 72 76 82 87 89 91 92 95 99
27 31 34 36 40 43 46 48 50 53 54 56 56 56 59 61 63 65 66 67 67 69 73 77 82 86 88 90 91 92 94 90

GFSFLT2_500_spd_045.txt.gz
Wind_Speed
32 33 40 42 36 22 16 13 8 7 11 10 10 9 14 16 19 21 21 24 24 23 22 23 23 22 24 25 28 30 32 36
27 28 35 28 23 16 13 10 8 8 8 9 13 16 15 20 19 21 23 25 27 27 23 24 24 24 29 34 38 38 40 40
32 23 16 11 12 14 12 9 6 6 11 11 14 16 17 19 22 24 23 25 27 27 28 29 30 31 33 32 37 40 44 45
9 13 13 12 14 11 9 7 8 9 12 12 14 17 20 21 25 25 26 26 26 23 22 26 33 36 40 41 44 41 42 45
13 17 17 16 13 9 4 6 9 12 12 14 17 15 18 24 27 23 22 19 24 29 27 31 29 33 34 35 39 38 39 43
12 10 10 8 7 7 6 7 11 12 14 19 23 15 20 18 17 10 26 17 23 30 32 37 38 39 37 34 34 37 38 37
9 7 4 3 3 2 4 8 10 13 15 19 25 20 10 23 23 19 27 30 27 28 30 32 33 36 36 35 32 35 38 36
5 3 2 3 1 6 7 10 12 14 17 24 27 31 22 25 30 27 31 27 28 30 32 33 34 35 37 38 38 37 39 39
2 2 2 4 7 10 9 11 14 18 22 27 28 30 22 29 32 28 25 25 29 32 34 35 36 37 36 37 39 41 42 43
1 1 3 7 9 10 14 17 20 23 27 28 24 31 26 27 26 28 29 30 32 34 36 37 40 41 42 44 44 42 41 44
4 5 8 9 13 18 21 23 26 27 28 29 32 26 26 27 29 32 35 37 38 40 42 43 44 45 46 47 47 46 44 45
7 10 13 15 19 20 23 27 27 27 27 29 25 27 29 31 35 37 39 40 42 44 45 46 47 47 47 49 47 45 46 47
12 15 17 19 19 20 23 22 22 24 24 27 28 31 33 35 38 39 42 44 46 48 48 50 52 52 52 53 50 49 48 52
16 19 22 20 20 21 20 19 20 24 26 29 33 36 38 41 43 45 47 48 51 52 52 54 56 57 58 56 52 48 51 56
20 20 19 16 17 16 17 20 23 28 32 34 38 42 44 46 47 48 49 50 52 54 56 58 59 59 58 56 56 58 61 64
19 18 16 14 15 19 23 26 30 33 37 40 44 46 49 49 50 51 52 52 54 56 57 58 59 58 56 60 65 68 71 74
16 15 15 17 20 25 30 33 36 39 42 44 48 50 51 53 54 54 53 54 56 58 58 61 62 60 62 66 70 74 78 82
16 17 18 24 28 31 35 38 41 45 49 51 54 56 56 57 58 59 60 62 63 63 63 65 63 63 66 71 76 80 84 89
19 22 22 27 32 35 39 43 46 50 53 55 56 57 57 58 59 58 58 64 63 64 65 65 66 69 72 76 79 83 86 90
23 27 27 30 35 39 43 46 49 52 54 54 55 56 58 58 53 60 62 66 64 66 66 67 69 72 76 77 82 83 84 89

GFSFLT2_500_spd_048.txt.gz
Wind_Speed
37 37 32 25 43 49 43 24 16 12 10 9 8 12 12 11 16 18 20 23 25 26 27 26 21 23 24 28 31 33 35 34
29 32 32 38 49 45 27 15 14 12 7 9 10 5 8 17 16 21 21 23 25 24 26 26 24 21 25 29 34 35 37 37
31 28 26 25 28 29 17 16 15 9 9 8 8 11 15 17 17 18 21 25 27 22 15 22 22 25 27 28 30 36 39 40
26 27 9 15 14 9 16 13 7 7 9 12 9 11 12 12 15 20 25 22 19 16 21 24 26 28 33 36 34 33 35 35
24 13 19 16 17 13 10 7 6 7 5 6 9 16 16 15 18 21 21 18 18 22 22 24 26 27 27 31 31 31 33 34
20 21 23 21 16 13 10 7 5 3 6 5 9 15 14 16 8 11 18 24 24 28 29 25 25 27 30 32 33 34 36 36
16 18 17 17 16 11 7 5 4 7 8 11 13 16 18 22 20 15 18 22 28 30 26 27 29 32 34 36 36 37 39 39
11 14 11 11 9 5 4 5 7 9 11 14 20 19 16 20 20 23 26 23 22 24 28 30 34 35 37 38 39 40 40 40
6 7 7 6 3 2 4 7 9 11 14 18 21 21 21 24 20 18 20 24 29 30 32 34 37 38 39 40 42 42 44 45
5 4 4 2 3 4 6 10 13 16 19 20 20 21 21 18 20 23 26 29 32 33 35 38 39 39 39 41 43 45 46 47
4 3 1 3 6 9 11 13 16 18 20 18 18 17 18 20 24 25 28 31 34 35 37 39 39 40 42 43 45 46 47 47
3 4 7 9 12 14 15 17 18 19 17 15 18 21 23 26 29 32 34 38 39 39 41 42 42 43 45 46 48 48 48 45
8 11 13 14 15 15 17 16 15 14 16 19 23 26 29 33 35 38 40 43 44 45 47 47 47 48 49 50 52 52 50 46
13 16 15 15 16 15 14 12 14 19 23 26 30 32 36 38 40 43 45 47 48 50 51 50 50 53 54 54 54 52 50 50
17 14 13 13 14 13 14 16 20 25 28 31 35 38 41 44 45 47 49 50 51 53 54 54 54 58 57 57 58 56 54 56
15 12 12 12 14 16 19 22 26 30 33 36 39 42 44 45 49 50 51 52 52 53 52 52 56 59 57 59 59 59 62 64
9 8 11 13 15 20 24 27 31 35 38 40 43 46 47 46 48 51 53 55 54 55 54 59 62 62 61 60 62 66 68 71
9 9 14 18 21 26 28 31 35 39 42 44 46 47 48 52 52 53 53 55 55 54 53 58 61 64 63 64 67 71 73 75
14 15 18 22 25 28 31 35 40 43 45 47 48 51 54 54 55 58 56 57 56 58 60 62 64 64 64 67 71 75 77 79
19 19 22 26 29 32 34 40 44 47 49 50 53 54 53 55 56 59 63 58 61 65 65 65 65 65 67 72 74 76 78 82

GFSFLT2_500_spd_051.txt.gz
Wind_Speed
47 33 39 34 30 39 39 41 47 29 7 4 9 12 14 19 16 14 15 19 23 28 30 25 22 22 24 23 25 25 24 27
22 25 29 36 48 46 49 48 19 14 11 12 11 11 12 11 9 11 15 23 28 27 25 19 15 18 21 24 27 30 30 33
27 8 22 31 37 34 46 35 19 18 11 9 12 11 10 11 14 17 25 24 24 20 22 19 20 24 24 27 30 33 34 34
26 28 31 27 26 30 40 17 17 14 13 12 10 11 12 16 19 22 19 20 20 20 18 20 23 26 27 27 29 30 32 34
27 27 26 26 26 23 20 15 10 10 9 9 9 10 7 13 16 17 22 20 20 22 25 28 29 29 27 27 28 31 33 35
22 17 14 14 17 18 18 13 11 9 8 10 4 7 8 12 16 19 19 15 19 22 27 30 28 27 31 33 35 37 37 38
19 18 19 16 17 15 12 10 9 9 8 9 11 10 14 16 18 19 22 29 31 27 25 26 30 33 36 38 39 40 40 42
13 12 13 11 11 12 10 9 9 7 8 9 11 17 18 17 20 21 16 15 19 22 27 31 35 38 39 41 42 42 43 43
12 12 14 15 10 8 8 7 6 8 9 12 16 17 17 16 14 16 19 21 25 29 33 35 36 39 40 42 43 43 42 43
13 12 12 9 7 5 4 5 8 10 13 14 16 14 13 14 17 21 23 26 30 33 36 38 41 43 44 45 46 45 46 47
9 7 5 1 1 3 6 12 12 14 16 15 13 13 15 19 21 24 27 31 35 38 41 42 43 45 46 47 46 46 47 49
5 4 1 2 4 7 9 12 14 14 13 11 15 17 21 23 26 30 33 36 39 42 43 43 45 46 48 48 47 46 50 51
4 2 3 6 8 11 13 15 13 10 11 15 19 23 25 27 31 35 37 40 43 45 46 46 48 48 47 48 51 50 51 53
2 2 5 5 9 11 12 12 11 14 17 20 24 27 30 33 37 39 43 45 47 48 49 49 50 50 50 51 53 53 55 56
5 5 6 7 9 11 11 13 16 20 24 26 29 32 36 38 42 46 48 49 50 50 52 52 53 54 55 56 55 55 55 58
9 7 7 8 9 13 14 18 22 26 29 32 34 37 40 44 46 48 50 50 50 50 52 53 54 53 52 55 60 61 61 55
9 10 9 10 12 15 19 23 26 31 34 37 39 41 45 47 48 48 50 51 48 51 56 57 60 58 58 63 65 66 63 62
9 11 10 12 17 20 22 27 31 35 39 42 43 45 47 48 49 50 51 46 51 61 61 61 59 57 64 69 68 67 67 69
9 11 13 16 20 24 26 32 35 40 44 45 47 48 48 49 48 52 51 51 60 62 64 62 62 63 67 69 69 70 73 76
14 15 17 19 23 27 33 37 41 46 47 50 51 51 51 53 51 50 60 55 63 68 62 63 66 68 69 70 72 75 80 83

GFSFLT2_500_spd_054.txt.gz
Wind_Speed
38 50 43 45 41 40 30 35 38 41 42 34 16 9 6 8 14 17 20 14 14 19 22 25 29 28 23 21 21 20 21 24
33 42 49 45 56 39 33 36 41 41 44 17 9 7 7 11 14 17 13 14 18 20 25 28 26 23 23 23 25 27 27 28
28 21 16 32 25 28 31 44 43 34 26 18 16 9 7 10 12 13 15 18 20 26 29 23 23 22 22 26 27 27 30 29
27 28 22 22 30 28 33 38 29 19 16 16 12 10 9 11 12 15 19 21 24 25 25 23 24 25 26 28 26 27 30 33
23 21 24 25 22 29 31 25 17 17 17 17 11 9 11 13 15 23 22 21 25 21 20 21 24 25 23 25 30 32 34 36
22 23 26 23 27 37 35 20 19 18 13 10 11 17 15 8 13 14 18 17 22 24 27 28 27 27 28 30 34 36 36 37
24 17 15 16 15 15 15 13 13 13 12 11 15 10 11 12 13 14 18 22 21 19 18 19 26 30 32 33 36 39 41 42
15 16 17 14 13 10 8 7 10 10 9 9 9 11 15 15 16 17 16 16 18 20 22 26 31 32 36 39 41 43 44 45
15 16 13 9 10 10 9 7 7 10 8 9 11 13 15 14 14 13 16 19 22 24 27 32 34 37 40 43 44 45 46 47
14 14 14 13 11 9 8 8 9 10 11 10 12 14 12 12 14 17 21 23 26 29 33 36 38 41 43 46 47 48 50 50
16 16 16 13 10 7 8 9 11 10 10 11 14 12 12 15 18 23 25 28 32 36 39 40 43 45 46 47 48 50 52 52
14 12 10 8 7 7 7 8 9 8 10 9 10 13 16 20 23 26 30 34 38 40 43 44 45 45 47 48 50 52 52 52
8 8 8 8 9 9 8 8 7 8 8 10 15 18 22 25 28 31 35 39 42 44 46 46 47 48 50 51 52 53 53 51
12 10 9 9 10 9 8 8 7 9 11 16 21 24 26 30 33 36 39 43 45 47 48 49 49 49 51 53 54 56 55 53
11 11 10 10 10 10 9 8 9 13 18 22 26 28 31 34 38 40 43 46 49 50 50 49 49 50 56 58 58 57 55 56
11 10 12 12 10 12 12 11 14 19 21 26 30 33 36 39 42 44 46 49 49 50 48 48 47 53 58 64 61 60 61 62
15 14 13 13 13 12 14 16 19 21 24 31 36 39 42 45 45 45 47 50 49 51 48 52 54 57 66 68 65 65 66 67
17 15 15 15 15 14 16 19 21 22 29 38 42 45 46 48 44 49 50 53 53 53 53 58 60 65 70 69 69 70 71 71
16 13 14 17 18 16 20 22 25 26 35 42 46 45 46 47 48 53 53 54 51 59 57 64 69 71 73 72 71 73 73 76
13 14 17 20 20 18 22 26 29 32 41 44 43 44 47 47 51 53 55 56 48 59 64 67 65 69 74 73 74 75 78 82

GFSFLT2_500_spd_060.txt.gz
Wind_Speed
21 25 27 35 38 38 48 41 41 37 39 31 26 27 28 30 31 28 24 22 20 17 15 13 15 19 22 20 20 16 17 17
26 25 22 33 49 44 47 42 35 45 39 30 33 32 33 30 25 24 25 23 20 18 14 16 17 18 20 18 18 19 20 17
30 31 29 28 30 15 14 25 37 50 39 37 38 34 28 23 21 19 16 15 14 14 16 17 18 20 19 18 16 16 15 19
27 25 25 24 29 29 28 20 19 28 43 36 35 29 27 19 17 13 9 11 15 16 17 18 18 16 17 18 19 20 22 24
31 25 24 23 21 18 20 21 11 21 41 31 29 21 16 17 14 11 14 15 17 14 14 15 14 14 18 17 20 22 24 27
30 35 27 25 24 23 22 19 22 22 28 23 20 18 15 13 11 12 11 11 12 14 15 14 12 12 17 21 22 26 28 32
20 29 31 26 24 25 24 27 24 27 21 21 17 15 14 13 12 11 9 13 14 12 10 13 15 17 20 24 28 31 33 36
19 22 18 18 19 25 20 16 17 19 19 15 12 12 14 15 13 13 14 12 12 11 13 17 19 22 26 29 32 34 37 39
17 16 15 19 19 21 24 20 20 15 14 15 13 13 10 12 15 12 11 10 12 16 18 20 24 27 30 34 36 38 39 40
19 19 20 21 21 18 16 12 10 11 10 8 12 13 12 15 11 7 9 13 17 19 21 25 29 33 35 37 38 39 39 40
18 15 12 13 14 12 11 12 10 11 12 12 13 13 13 15 12 10 14 17 20 23 27 31 34 37 38 39 38 38 37 37
7 7 9 8 8 9 11 11 12 12 13 15 15 15 17 15 11 14 18 21 24 28 32 35 37 38 39 40 39 39 38 41
7 8 10 9 11 12 11 13 14 16 17 16 16 15 15 15 14 18 22 25 28 33 36 38 39 41 40 42 39 39 43 47
15 15 14 14 14 14 14 16 16 17 18 19 18 16 16 16 17 21 24 28 33 36 36 36 39 38 42 44 47 49 48 50
16 16 15 14 14 17 18 17 16 18 17 19 19 20 21 20 21 23 29 34 34 34 36 38 39 42 44 47 50 51 54 57
13 14 15 17 16 17 18 18 17 18 17 19 20 22 25 29 32 35 37 39 36 36 38 41 43 45 48 51 56 57 60 64
16 17 18 18 19 18 20 20 19 21 21 21 22 25 26 29 31 38 43 36 40 39 42 42 46 51 54 58 58 55 62 68
20 19 19 19 20 20 22 22 23 25 23 27 26 25 26 28 36 40 38 41 41 42 48 51 53 60 58 58 53 59 66 72
19 16 17 15 17 19 22 23 25 31 31 34 23 26 28 35 36 38 41 42 42 45 54 55 55 59 60 61 58 63 66 75
20 16 16 15 17 20 22 23 27 33 38 29 24 27 31 32 37 39 42 41 44 51 51 58 57 55 65 67 70 69 74 74

GFSFLT2_500_spd_063.txt.gz
Wind_Speed
40 33 45 37 44 45 43 40 37 38 38 36 38 36 30 33 32 29 28 24 24 23 18 14 12 14 17 21 22 17 14 18
22 14 13 19 28 47 46 44 40 44 43 39 35 41 35 35 30 25 23 25 23 20 15 13 14 17 19 19 19 17 14 13
26 23 22 18 14 12 19 8 16 18 32 41 39 42 36 35 31 24 22 21 19 18 16 16 18 19 19 20 15 14 15 16
22 21 23 20 15 15 23 22 23 15 16 23 37 45 43 32 25 24 13 13 14 14 16 17 20 19 19 15 16 15 16 20
19 24 26 18 17 15 19 15 18 18 16 18 33 46 30 27 18 11 12 13 14 15 18 16 15 15 11 11 14 16 18 20
18 19 20 27 21 18 21 22 22 21 20 18 25 27 26 20 14 13 13 12 12 14 15 13 13 9 10 14 16 20 22 26
11 21 16 23 24 20 21 20 21 22 21 18 27 25 16 15 16 15 12 11 12 13 12 11 12 13 16 18 22 25 27 29
18 19 17 22 23 23 22 22 25 25 25 25 15 15 19 18 16 15 13 13 12 9 9 12 15 17 19 23 26 30 32 33
16 16 15 17 15 19 25 24 18 13 16 17 19 17 14 15 15 13 12 12 9 9 12 16 17 21 24 28 31 33 35 38
11 12 15 17 20 16 14 21 20 17 14 12 12 10 10 12 12 12 10 11 10 12 16 19 22 26 28 31 33 35 38 40
16 16 16 17 18 18 17 18 15 11 10 7 7 11 14 14 13 11 11 11 12 15 20 22 26 30 32 34 36 39 39 39
11 11 12 11 11 11 11 10 10 9 9 10 13 14 19 17 15 13 12 14 16 20 24 26 30 33 35 36 38 38 39 38
5 9 8 7 4 3 4 5 7 9 11 13 14 19 20 16 16 15 16 18 20 24 27 31 33 32 35 37 38 37 40 44
5 5 5 4 5 7 8 10 11 13 15 17 20 21 19 18 19 21 20 23 23 26 32 35 29 30 34 38 41 45 47 46
6 7 8 10 11 12 12 14 16 17 18 19 20 19 20 20 24 24 25 28 29 36 40 40 35 31 36 42 46 48 51 56
9 10 11 13 13 15 16 17 17 18 18 19 20 20 22 24 26 29 32 37 40 42 44 39 40 38 38 46 51 54 57 61
11 12 13 14 15 17 18 18 20 20 20 22 24 23 25 27 30 27 31 35 35 41 42 43 44 41 47 48 52 56 59 61
15 16 15 14 17 19 21 22 22 22 24 26 27 29 29 34 32 30 31 35 38 40 42 45 49 44 52 51 58 61 66 64
18 18 18 17 16 17 19 19 21 20 22 25 28 40 33 37 27 30 36 39 40 39 42 46 50 51 52 53 59 63 64 71
21 20 20 18 19 18 18 19 21 22 27 28 29 38 41 32 32 37 39 40 33 41 46 50 52 51 56 54 61 61 70 78

GFSFLT2_500_spd_066.txt.gz
Wind_Speed
28 42 42 51 48 56 52 47 43 43 39 37 36 34 31 29 26 27 29 30 27 22 17 16 14 13 14 13 16 17 15 13
25 35 48 30 40 53 55 42 36 40 37 37 40 37 33 33 30 30 35 36 25 23 13 12 10 13 14 14 14 16 13 10
9 14 31 20 16 19 37 35 41 37 29 32 37 41 34 37 34 35 30 28 22 17 12 12 13 14 15 17 16 15 13 12
14 10 14 12 13 7 8 12 7 22 9 15 12 21 34 35 33 34 29 28 15 8 10 13 15 16 18 19 15 11 9 12
15 15 16 6 8 8 8 8 11 12 11 12 13 16 27 37 38 29 18 10 8 12 14 14 15 12 14 12 11 12 13 15
12 10 9 11 15 13 11 15 15 21 18 14 15 16 22 31 26 23 15 11 11 13 14 12 11 12 9 10 12 14 16 19
13 11 13 12 19 24 19 16 20 22 17 15 17 16 19 25 24 19 14 12 13 12 10 11 11 12 11 14 15 17 19 22
13 12 16 18 25 18 17 17 17 21 19 20 18 15 22 23 18 15 15 12 11 11 11 10 11 12 14 14 18 22 23 25
16 17 16 14 13 13 18 18 16 20 24 16 16 19 19 20 17 16 13 13 14 12 10 10 12 15 16 19 22 24 26 27
10 12 13 14 11 16 20 24 18 14 12 18 19 16 12 12 12 12 12 13 12 11 11 14 14 17 20 22 25 27 28 30
6 9 12 11 10 7 10 16 20 18 14 12 9 8 10 10 9 9 10 14 12 12 14 16 17 20 22 26 27 28 29 30
18 17 17 18 17 18 17 15 15 12 10 7 6 8 10 11 12 12 13 14 15 16 17 18 19 23 27 27 27 29 31 31
13 11 12 13 11 9 7 6 6 4 4 5 7 10 11 14 16 16 17 16 18 21 21 22 22 25 30 29 30 27 32 36
8 8 7 6 6 5 4 3 2 4 7 10 12 14 15 17 17 18 19 22 23 26 26 28 30 33 37 34 35 33 36 38
7 5 4 5 5 5 6 7 8 10 12 13 14 15 16 17 18 17 22 28 29 32 35 38 42 40 40 40 40 41 40 43
4 5 5 7 8 9 10 10 11 11 13 14 16 17 18 19 21 23 26 30 35 38 37 41 40 39 38 41 45 47 49 50
6 6 7 7 10 12 14 14 15 14 15 16 17 17 20 22 25 29 32 36 35 36 38 37 40 42 40 46 49 49 52 53
7 8 9 8 10 14 16 17 16 16 16 16 17 21 23 29 28 33 39 38 39 36 37 43 46 35 43 53 56 57 54 55
7 8 9 9 10 13 15 15 17 16 16 16 19 19 28 31 29 33 27 31 37 41 42 45 38 39 42 56 59 61 55 59
12 11 11 10 11 13 14 16 16 19 20 21 24 24 27 29 31 31 33 31 31 30 30 35 33 38 46 53 58 59 61 63

GFSFLT2_500_spd_072.txt.gz
Wind_Speed
22 20 28 37 27 48 34 48 62 54 50 46 42 39 33 29 27 28 28 26 27 28 27 27 23 22 23 20 14 11 12 9
27 22 18 23 22 31 47 55 53 51 46 49 46 43 36 30 32 30 28 29 29 29 26 24 25 23 17 17 15 13 10 7
23 15 6 10 18 23 42 41 41 42 49 54 48 37 39 32 32 33 32 32 32 33 29 28 27 27 17 16 14 13 11 10
10 9 10 7 9 21 34 17 34 54 49 47 51 45 39 33 37 37 37 36 35 34 29 23 22 17 16 17 13 14 14 13
10 8 6 5 3 5 9 27 24 37 30 37 40 39 30 24 26 29 28 37 37 32 26 24 20 17 16 12 11 14 16 14
13 8 4 4 5 4 9 14 14 18 23 23 18 19 18 19 19 22 16 16 26 26 21 20 18 13 10 12 11 11 13 16
11 7 6 7 8 12 10 14 13 11 13 11 11 13 15 15 15 16 15 16 21 22 20 18 15 12 12 11 11 13 15 16
16 12 11 8 8 18 14 14 13 12 11 14 14 15 14 19 16 14 14 18 22 22 19 13 12 13 13 14 15 17 17 19
16 16 12 12 15 16 13 18 19 14 14 16 15 17 17 20 16 13 14 17 18 16 16 14 13 13 15 17 17 18 20 20
13 12 12 15 15 17 18 16 24 22 17 16 18 18 19 17 14 13 17 14 12 13 11 13 15 17 17 18 18 18 20 22
10 7 13 17 16 14 16 18 21 18 19 18 19 19 16 14 16 20 17 13 10 9 12 16 19 18 19 20 21 22 17 20
6 8 10 13 18 18 16 17 20 15 12 14 20 20 18 17 15 13 12 11 10 14 18 20 20 20 21 22 25 24 23 24
5 6 8 10 11 13 15 16 18 17 18 16 15 14 13 13 12 11 10 10 14 18 20 23 25 23 24 26 25 28 32 35
16 20 18 16 17 16 18 18 18 17 15 13 11 11 10 9 11 10 13 15 17 20 24 26 27 28 28 31 31 34 32 36
11 13 15 15 14 13 13 12 12 11 11 10 10 9 8 9 11 13 15 15 15 18 21 23 28 31 34 33 34 36 35 36
10 11 12 13 14 12 12 11 8 6 6 6 7 8 8 10 11 10 12 14 15 17 22 26 29 32 36 38 37 42 47 39
8 7 7 7 8 9 9 9 10 8 7 8 9 10 12 13 11 9 13 14 15 17 21 22 23 26 30 29 34 41 42 39
10 8 8 9 10 9 9 10 10 10 11 12 11 12 12 11 13 14 11 12 12 14 18 21 24 26 29 30 33 38 38 42
8 9 10 10 9 9 10 11 9 11 12 12 14 13 13 16 16 18 19 18 17 17 20 22 26 30 32 34 37 40 39 38
4 6 8 9 11 12 14 14 12 13 14 16 17 19 20 21 20 22 25 23 22 25 26 25 28 31 34 34 37 38 37 43

GFSFLT2_500_spd_075.txt.gz
Wind_Speed
30 27 30 21 24 24 38 30 44 49 45 36 40 40 41 40 26 26 24 22 24 23 26 26 24 28 26 26 26 21 17 16
30 28 32 25 21 21 24 18 48 48 47 48 47 43 33 30 26 28 27 25 25 26 27 27 28 28 26 24 24 17 17 16
16 18 19 18 11 13 9 30 43 52 45 40 47 44 39 29 30 30 29 28 28 29 29 27 31 32 30 24 21 17 16 15
16 17 15 11 5 9 12 10 38 43 43 48 47 51 45 39 36 34 35 34 32 31 32 34 34 30 23 22 18 18 17 16
12 13 11 4 8 1 9 8 41 33 35 37 48 46 45 33 34 34 32 33 36 38 37 34 32 27 23 20 19 19 19 19
16 14 8 10 7 2 4 17 26 25 35 43 36 43 47 40 36 33 28 33 33 32 31 26 26 22 22 20 17 17 18 19
16 14 13 14 12 12 13 13 20 20 28 25 28 29 33 30 29 26 26 31 29 25 21 21 21 22 20 18 17 16 16 18
18 15 16 14 12 14 22 19 15 23 21 21 20 23 22 23 21 23 26 27 27 21 19 23 20 19 19 18 18 17 17 19
21 19 20 16 12 19 20 11 15 14 15 11 12 16 20 20 22 23 23 20 15 16 20 21 19 16 18 18 17 18 18 19
20 23 19 16 12 17 11 12 19 19 17 22 21 21 22 21 22 22 23 18 15 17 18 19 16 16 20 19 20 20 20 22
17 17 20 18 17 16 19 20 20 24 23 18 19 21 23 21 22 21 20 17 15 12 15 17 17 19 21 21 21 22 23 25
15 18 19 19 21 21 20 21 22 27 23 20 20 20 22 24 23 18 19 17 16 14 12 16 20 21 23 24 24 24 24 27
12 18 16 16 20 19 20 19 16 19 20 21 20 17 20 21 19 21 20 19 15 14 18 20 22 24 24 26 25 26 27 28
12 9 11 14 18 22 23 20 17 17 18 20 21 20 19 19 18 19 16 13 17 18 18 20 24 26 27 28 29 30 32 34
9 11 15 18 19 19 18 21 22 20 17 15 16 18 17 17 20 20 18 17 18 19 19 21 24 26 28 31 32 34 37 36
7 7 12 16 18 20 19 18 17 18 20 20 18 17 18 19 17 19 18 19 18 17 17 19 19 22 26 30 34 34 34 38
5 6 6 7 12 15 16 16 16 15 15 18 18 16 16 17 18 16 17 16 17 17 17 21 24 25 26 25 27 28 29 31
9 9 10 10 10 10 9 11 12 14 15 14 15 16 16 16 15 18 18 14 16 17 19 21 23 24 27 27 30 32 33 35
7 7 6 6 7 8 11 10 10 10 10 12 14 15 17 18 19 20 23 22 22 22 23 23 26 27 29 31 34 35 36 38
8 6 5 6 8 10 10 9 10 9 10 14 15 16 16 17 18 23 24 24 24 27 30 29 30 30 32 35 35 38 40 39

GFSFLT2_500_spd_078.txt.gz
Wind_Speed
18 17 25 27 24 28 24 29 32 24 24 34 35 39 37 31 30 29 24 20 18 21 22 23 22 24 24 24 23 22 20 20
5 13 15 19 23 18 17 18 29 33 28 33 39 45 38 33 29 24 20 20 22 26 25 23 24 26 26 25 27 22 25 24
9 9 12 13 17 21 16 8 23 35 38 36 44 44 36 33 39 29 28 25 25 26 26 26 28 27 25 26 28 22 24 20
13 15 11 12 13 16 19 10 12 37 46 48 40 40 40 40 37 34 30 28 28 27 29 28 31 30 29 28 29 23 21 20
13 9 10 10 15 11 14 15 24 32 49 44 42 36 41 40 36 26 30 30 30 31 31 30 36 37 33 30 26 24 23 23
12 12 8 11 12 11 3 7 24 43 43 44 36 34 42 39 35 31 33 34 35 30 27 27 28 29 27 26 22 22 23 24
16 13 12 14 12 10 10 6 23 29 35 36 38 36 40 42 43 48 42 36 34 25 26 28 27 25 22 21 21 21 21 22
15 15 15 16 14 11 11 14 28 31 32 28 34 34 28 35 33 29 32 32 26 27 27 23 21 19 19 19 21 18 17 16
13 17 18 18 14 14 15 15 23 26 19 27 15 18 17 18 19 21 28 27 24 25 24 21 20 21 23 21 18 19 18 16
17 21 22 20 18 18 20 16 15 18 22 18 17 13 13 14 20 22 21 20 21 23 20 20 20 22 22 21 22 27 22 19
14 19 21 18 19 21 24 18 14 16 17 20 20 14 13 20 22 20 20 22 24 23 21 21 23 23 19 19 18 18 20 24
14 15 16 19 22 22 24 22 19 20 23 21 19 19 22 23 23 25 23 22 21 20 18 20 22 23 20 21 23 23 24 26
11 16 15 15 19 23 23 26 19 22 25 22 22 24 25 27 27 24 22 24 24 18 17 13 15 19 21 24 24 25 27 28
6 12 13 15 22 23 22 21 19 20 25 25 27 30 28 27 24 25 26 22 21 19 18 17 21 21 23 26 27 27 29 31
7 6 8 17 22 24 24 25 24 21 22 28 24 22 21 22 24 22 22 20 18 20 19 20 21 21 25 25 26 28 31 34
7 6 6 4 13 22 20 17 15 20 21 22 19 19 19 19 19 21 21 20 21 21 22 20 19 19 20 22 24 28 29 33
4 9 9 5 8 14 15 15 17 17 19 19 19 18 17 16 17 18 20 21 22 20 19 21 21 24 25 25 28 29 32 35
6 8 11 11 11 13 14 14 15 14 13 14 16 16 16 17 20 21 20 20 21 21 22 23 24 26 28 30 31 33 35 37
7 7 5 6 8 9 11 14 16 15 15 15 15 16 17 18 19 21 22 24 24 25 26 26 27 29 33 32 36 35 37 40
8 8 8 8 7 7 8 9 11 11 11 13 16 17 18 19 21 23 24 26 26 26 27 28 32 33 35 37 37 37 40 41

GFSFLT2_500_spd_081.txt.gz
Wind_Speed
24 19 22 25 25 18 21 21 16 26 26 25 25 24 34 36 36 31 27 25 22 19 16 17 16 17 19 18 19 20 24 20
19 12 10 25 16 16 17 14 13 17 24 26 21 24 26 34 34 29 28 27 25 21 18 19 20 19 21 21 21 21 21 21
16 15 7 12 20 12 18 16 15 20 27 37 29 24 22 36 39 36 32 30 28 24 20 23 22 21 21 25 25 23 22 22
18 13 12 8 10 16 17 17 19 23 27 35 37 35 29 42 41 35 36 33 30 25 24 25 23 24 26 27 27 25 22 22
22 14 10 11 16 17 16 15 25 22 45 47 37 41 40 41 41 37 35 31 29 28 28 26 26 28 29 30 33 26 24 24
20 17 14 9 9 15 19 17 23 29 39 43 35 31 37 47 47 42 43 37 33 35 30 25 27 28 30 30 28 27 24 25
20 19 15 12 11 15 19 19 19 29 40 43 45 35 43 46 45 41 40 42 39 36 31 26 29 30 29 30 28 23 21 19
17 21 17 15 13 18 15 17 19 28 33 46 46 41 41 40 38 43 44 37 41 39 32 31 28 29 28 25 21 20 18 20
16 20 18 15 13 16 12 4 18 27 32 40 40 39 42 37 36 43 46 42 34 34 30 29 29 26 23 21 19 19 20 20
16 19 16 16 14 18 15 7 25 31 34 33 34 26 26 31 30 27 28 23 26 29 28 25 23 22 20 19 19 19 20 20
16 17 18 18 17 18 21 10 16 29 33 31 20 23 22 22 23 21 22 22 27 24 23 20 20 19 19 21 20 21 25 28
13 17 17 19 21 19 16 14 13 14 26 23 24 19 17 14 15 18 22 24 23 23 22 19 19 19 19 23 25 22 21 17
11 15 18 15 16 16 15 20 16 15 18 19 24 22 19 18 18 21 25 26 22 22 20 19 17 15 19 24 20 20 22 23
8 11 14 16 17 15 16 18 20 19 19 25 24 24 23 23 24 25 27 24 22 20 19 19 19 19 21 20 20 23 26 27
8 1 16 18 17 21 21 18 16 14 14 22 21 22 23 25 26 25 24 21 21 22 21 21 20 19 20 21 23 24 27 30
5 5 5 4 21 20 17 21 23 19 18 16 20 23 25 25 24 19 17 21 22 24 22 22 21 22 23 26 24 24 26 28
3 4 3 4 5 18 21 24 21 23 22 21 18 15 16 15 14 14 18 19 21 22 23 24 26 26 26 24 23 24 27 32
4 5 4 2 3 7 11 12 14 12 11 12 13 15 16 15 17 18 20 20 23 24 25 25 28 26 26 25 27 29 32 36
7 5 4 3 6 6 7 8 9 11 13 13 15 16 16 19 20 19 20 22 23 24 25 25 25 26 28 30 30 29 36 40
6 8 8 8 8 9 9 9 9 10 12 14 15 17 19 18 18 18 19 20 21 22 24 24 26 28 30 33 37 38 43 44

GFSFLT2_500_spd_084.txt.gz
Wind_Speed
21 26 27 13 21 21 23 20 27 20 18 32 35 32 30 30 36 33 32 32 30 26 23 20 19 18 16 13 14 16 19 19
22 24 23 9 18 28 20 17 14 8 11 35 30 29 28 32 39 34 37 36 32 29 25 24 20 21 17 17 16 18 19 19
22 22 23 11 11 20 21 16 14 13 18 29 26 26 30 26 41 38 39 38 37 31 27 26 24 21 20 17 18 19 21 23
24 21 20 15 8 19 17 14 17 18 15 33 34 33 24 27 38 34 44 39 34 33 29 26 25 24 21 20 20 20 23 23
25 23 18 17 10 17 18 20 18 21 21 33 31 38 30 30 32 35 41 37 33 33 31 29 29 25 24 22 23 24 26 26
23 24 18 16 11 19 23 23 25 28 28 33 35 43 38 32 30 37 46 43 36 36 33 33 32 26 26 23 26 26 27 27
19 21 20 18 17 17 22 25 24 28 33 40 42 46 43 35 40 35 45 46 37 37 36 36 34 27 25 26 27 26 26 28
20 20 18 20 21 16 14 19 23 25 35 37 42 53 44 39 40 43 45 46 44 41 39 38 36 33 28 28 25 24 25 24
19 18 19 19 20 22 15 20 19 24 27 35 37 38 47 40 40 45 50 49 47 45 45 42 40 32 28 27 26 23 22 23
19 19 18 18 21 24 20 19 20 22 14 31 37 41 49 47 41 46 48 47 48 39 35 38 37 30 27 27 26 22 21 22
18 19 19 19 20 24 17 23 13 17 23 27 38 44 38 39 31 36 36 49 43 38 35 32 28 28 25 25 23 21 23 22
18 20 19 20 20 20 19 24 15 23 32 32 29 38 32 25 24 24 24 23 26 29 28 23 25 24 25 20 21 22 21 22
16 14 17 17 22 18 17 17 16 12 21 28 28 23 22 21 18 18 19 22 23 23 23 24 22 23 21 19 18 21 22 24
16 11 10 16 17 17 16 14 13 14 15 19 25 21 19 17 15 14 16 18 18 22 23 23 24 23 21 21 19 19 21 21
9 8 9 13 19 21 15 14 13 17 13 17 15 16 19 20 19 15 14 17 19 23 25 24 25 21 23 22 19 18 23 24
6 5 6 8 19 19 16 21 14 15 8 11 18 19 18 17 17 17 19 23 23 23 26 23 20 19 20 22 22 23 26 25
7 5 2 5 7 21 25 22 17 17 15 15 14 19 20 18 18 19 16 14 18 20 20 21 22 22 25 24 24 26 28 30
7 7 5 3 4 9 18 16 16 16 18 17 18 18 15 14 13 11 10 12 15 17 19 21 24 25 26 27 27 28 28 31
7 5 4 2 1 4 6 8 7 9 12 11 10 11 10 10 10 10 13 18 19 20 21 22 22 23 25 25 28 29 31 34
6 7 5 5 5 6 7 9 8 7 7 7 8 9 11 10 9 13 17 18 19 20 20 20 23 24 26 28 30 32 36 39

GFSFLT2_500_spd_087.txt.gz
Wind_Speed
29 31 26 24 30 28 32 27 29 28 24 21 27 30 34 33 34 36 36 34 33 29 26 24 22 20 20 19 19 18 15 13
29 30 26 21 28 21 21 22 20 20 20 17 23 28 40 37 35 38 36 36 35 32 30 27 23 21 23 21 20 18 16 16
31 29 27 20 22 18 21 15 22 17 18 18 28 31 34 32 32 34 34 38 38 35 31 27 23 24 23 23 20 20 21 19
28 27 26 20 20 15 15 23 23 19 15 25 17 35 35 33 33 36 36 36 35 34 34 29 29 27 26 24 22 21 20 18
24 23 25 20 19 16 18 18 24 20 20 21 20 34 38 32 34 29 37 37 39 38 37 33 31 29 28 27 24 23 21 21
22 25 21 19 17 18 22 22 22 20 26 23 27 33 40 33 28 25 42 33 43 43 40 37 33 33 31 27 26 26 25 25
22 21 18 20 17 19 19 22 26 26 30 26 24 41 43 41 29 29 35 37 36 44 39 36 37 35 33 29 27 28 26 25
25 24 22 20 19 18 19 21 26 25 29 30 28 35 40 42 38 37 30 32 35 42 42 38 39 38 33 30 29 28 27 29
27 22 19 19 21 21 21 22 22 23 26 30 34 36 39 49 39 40 35 31 35 40 44 39 42 37 35 33 33 31 29 28
27 24 19 19 20 22 21 17 19 23 25 22 33 40 32 41 49 38 40 38 40 40 44 42 41 36 37 36 33 29 29 27
24 22 19 20 19 21 20 20 19 24 24 24 25 33 34 43 45 51 48 37 41 42 45 47 42 36 35 32 28 27 27 23
21 22 21 21 20 22 19 21 22 27 24 27 19 24 28 34 50 47 39 43 43 43 46 35 30 27 27 23 24 23 22 20
18 20 22 19 19 22 19 18 18 23 21 20 24 27 26 37 45 49 25 24 26 31 30 32 31 25 20 21 21 20 17 17
12 16 14 12 18 21 19 17 14 20 14 23 34 30 26 32 26 25 25 25 25 27 26 23 21 21 20 22 20 17 14 16
10 10 9 10 14 17 17 14 10 8 11 13 23 25 22 22 19 16 16 17 19 18 19 19 20 20 20 20 15 12 15 16
9 9 6 5 12 18 18 14 12 10 13 11 11 15 18 20 20 16 13 13 13 15 17 19 20 19 18 19 20 20 18 18
11 11 9 9 8 17 21 16 16 10 12 6 9 14 17 16 18 20 16 14 15 15 17 18 17 18 20 20 20 21 22 26
9 11 8 12 8 10 18 19 17 11 12 11 12 11 12 18 17 17 16 14 14 14 15 15 16 19 20 20 21 24 28 30
8 9 8 7 5 7 5 10 13 10 10 13 14 14 11 11 12 14 13 14 14 14 13 13 15 18 20 23 26 27 29 27
7 8 8 5 5 1 4 7 9 8 6 7 9 11 15 14 13 11 12 11 11 11 11 13 17 21 23 24 26 26 28 30

GFSFLT2_500_spd_090.txt.gz
Wind_Speed
23 27 27 28 28 28 30 31 29 36 38 37 39 19 26 30 27 38 36 32 34 32 30 28 27 27 25 20 19 16 17 15
25 30 30 29 27 28 30 29 29 26 35 31 25 22 32 35 31 36 36 32 40 33 30 29 28 26 23 22 19 18 16 16
25 27 27 23 23 25 32 22 20 16 24 29 30 28 33 28 31 27 33 36 39 32 33 32 31 27 22 21 20 20 15 14
22 26 27 20 21 23 26 19 16 21 24 17 19 17 28 30 38 33 31 30 36 37 37 33 30 28 24 22 23 19 14 15
23 24 26 23 23 21 20 18 24 26 28 22 21 20 23 33 34 30 31 33 37 37 38 36 33 31 27 25 24 19 17 18
20 22 23 21 20 20 18 22 19 21 20 17 17 16 29 29 32 33 30 31 36 39 38 38 36 35 30 30 25 19 22 21
24 22 21 21 21 21 18 18 19 24 19 22 21 18 20 21 30 31 32 33 38 36 39 43 40 37 33 31 24 23 22 25
25 23 20 21 21 22 19 19 20 20 23 25 25 20 17 23 35 32 34 31 38 32 44 43 41 40 35 31 27 28 27 25
22 23 21 21 20 22 19 21 14 23 23 29 32 24 22 27 34 41 31 29 32 42 32 34 43 43 36 32 31 30 28 29
22 23 23 21 21 20 20 22 20 17 18 21 24 24 29 29 37 41 41 34 31 30 32 32 35 44 37 32 32 32 32 32
22 22 23 22 19 21 19 22 24 17 14 19 21 24 28 28 37 36 40 44 39 37 34 31 34 38 40 34 34 34 31 26
20 21 22 24 20 20 18 20 23 20 17 18 22 26 25 29 33 32 36 47 41 37 38 34 32 36 38 26 28 26 24 20
17 19 21 23 19 17 18 19 22 22 21 20 19 28 29 27 33 32 39 45 53 43 40 29 33 31 27 24 21 18 17 17
15 16 20 21 17 13 15 20 17 18 22 25 24 26 26 28 29 22 30 43 53 36 28 25 29 25 23 21 17 15 17 15
13 13 14 18 13 12 14 17 18 23 18 20 12 19 24 21 25 33 38 48 45 38 25 25 25 23 21 17 16 14 15 14
12 13 12 14 11 9 12 16 21 16 14 13 14 20 33 34 30 32 32 30 30 22 20 20 17 17 16 17 17 14 11 10
13 13 10 9 11 10 13 19 19 15 10 14 14 10 18 25 25 22 19 18 17 17 16 13 14 16 18 18 17 19 18 19
12 10 9 12 12 13 9 16 19 14 11 11 8 9 16 19 22 19 15 12 14 16 17 16 14 19 16 14 15 15 18 20
11 9 7 8 9 9 9 10 15 16 9 8 10 11 8 11 17 16 15 16 14 17 16 15 16 16 17 16 15 17 20 23
10 8 6 7 8 5 4 4 6 10 8 9 11 12 12 13 16 18 16 14 15 15 15 14 14 13 13 14 17 19 24 26

GFSFLT2_500_spd_093.txt.gz
Wind_Speed
21 22 23 26 27 29 27 26 31 32 32 34 34 38 41 42 34 33 35 30 31 36 40 41 42 36 30 24 22 22 20 19
23 25 25 25 24 27 28 27 29 33 32 32 34 31 27 41 38 34 37 34 33 35 38 39 40 37 32 28 26 22 22 15
22 22 21 22 22 20 22 23 29 28 29 23 25 28 33 24 33 26 24 34 36 32 33 32 34 32 29 25 23 22 19 15
25 24 21 21 20 20 22 25 26 23 22 23 17 35 25 19 31 37 32 33 34 33 33 38 32 29 27 25 26 22 19 16
27 26 23 22 16 16 18 22 22 21 25 23 19 21 27 32 41 34 35 28 30 32 30 32 28 29 29 25 24 24 21 17
30 27 24 25 21 18 16 18 18 17 24 20 21 18 21 23 47 35 34 26 26 30 34 34 32 34 34 28 28 26 21 17
28 25 24 25 25 21 21 18 17 15 18 17 20 16 26 32 36 37 34 30 30 28 31 32 34 36 35 29 33 25 23 20
30 24 23 22 22 22 21 18 18 15 16 27 17 20 27 26 32 31 35 32 29 28 36 30 36 41 40 35 36 28 25 22
26 22 20 21 21 21 21 20 20 17 15 16 18 22 22 24 23 27 30 30 30 30 34 33 34 37 42 38 39 31 28 24
23 22 22 21 22 21 21 21 20 20 19 17 20 21 24 24 22 28 33 33 30 31 35 37 36 34 36 39 40 33 31 30
21 22 21 19 20 23 23 21 22 23 21 18 15 20 23 22 24 27 36 34 31 32 27 38 37 34 30 34 36 38 34 32
19 19 18 18 21 21 23 22 22 25 23 20 20 24 21 22 23 25 35 33 38 36 32 32 34 32 28 29 33 39 32 31
19 17 16 19 22 23 21 22 23 25 21 23 19 22 23 23 24 26 28 31 32 35 37 39 36 30 27 28 29 32 24 23
16 14 14 17 19 20 16 18 20 22 18 22 24 26 19 23 24 26 30 23 24 26 32 36 35 30 30 29 32 29 22 20
13 13 13 15 18 20 15 15 18 20 20 20 25 24 19 23 23 25 23 22 21 22 28 39 43 35 28 23 25 23 19 19
13 14 14 13 14 13 14 16 18 20 19 26 23 20 22 26 28 23 26 26 25 33 38 41 45 35 23 24 22 20 19 20
14 12 14 14 14 14 13 16 18 19 16 17 20 21 13 20 27 27 24 31 37 38 38 42 32 23 21 20 20 21 20 18
12 10 12 14 12 12 14 16 18 19 15 10 13 14 12 18 28 28 30 31 32 34 32 25 21 20 21 19 19 19 22 19
10 9 10 13 11 10 14 7 12 11 11 13 8 9 13 15 17 21 22 21 23 24 22 22 22 22 17 17 16 17 17 16
10 9 9 11 12 7 7 10 7 12 12 11 12 11 12 12 21 24 23 23 24 24 24 22 25 22 17 19 21 18 17 19

GFSFLT2_500_spd_096.txt.gz
Wind_Speed
25 26 24 23 24 26 28 31 33 33 32 33 34 36 37 36 28 38 41 40 28 35 37 35 33 34 36 38 42 34 26 23
26 25 26 28 28 26 25 29 31 30 32 33 36 40 35 34 35 43 41 39 26 30 36 35 36 34 35 36 40 29 19 14
27 26 27 26 26 25 25 27 24 26 30 33 37 36 33 32 32 39 32 30 27 28 32 32 33 35 38 43 34 26 17 17
30 29 28 27 28 23 23 25 24 28 29 30 30 27 25 26 28 35 41 31 32 30 35 29 35 35 37 42 34 24 20 20
33 32 31 28 27 25 23 21 21 25 27 27 21 24 23 21 35 30 33 30 27 26 32 28 28 29 44 33 22 25 22 21
31 33 32 30 26 29 26 23 23 24 24 20 19 22 27 31 31 31 35 34 28 27 29 33 27 29 33 26 28 25 24 23
30 32 30 28 27 27 25 21 22 23 21 18 17 16 21 30 33 39 41 34 32 24 28 32 28 26 29 30 29 28 28 25
28 29 27 24 25 24 23 20 20 23 21 17 15 18 20 23 34 41 42 34 30 22 25 31 29 31 31 29 30 31 31 26
29 27 24 24 23 23 23 21 20 22 22 17 11 19 19 27 32 34 40 32 33 27 26 28 28 32 31 32 35 36 35 33
28 25 24 25 25 23 23 21 21 22 23 20 15 16 22 31 29 33 35 31 31 32 27 28 31 29 29 35 38 40 40 37
26 21 21 24 25 22 22 23 23 23 24 22 17 17 18 25 33 31 26 32 31 29 27 28 28 30 32 33 36 38 41 40
22 18 23 23 21 22 22 24 27 26 25 23 22 18 18 20 31 22 21 26 34 32 31 30 31 34 35 37 33 27 38 42
19 19 21 19 18 20 21 24 27 26 26 23 24 21 24 23 20 25 23 24 35 34 33 32 32 29 38 36 27 28 26 32
18 18 18 18 19 20 21 21 23 25 23 23 23 23 23 25 27 25 24 25 32 36 33 36 34 31 32 36 25 27 26 26
18 17 17 18 19 21 21 20 19 19 19 21 20 23 26 24 25 27 27 29 29 34 31 30 21 22 25 27 30 31 31 28
17 17 17 18 19 21 21 19 16 18 19 24 23 20 25 27 29 31 29 38 35 22 20 20 25 26 28 32 34 30 23 27
17 17 16 16 18 19 21 20 19 14 17 23 23 26 30 33 32 32 31 35 34 29 25 25 35 32 31 34 33 28 27 28
17 15 15 15 17 17 20 19 19 17 19 19 17 20 27 29 35 35 30 27 33 23 33 38 37 39 36 35 30 28 27 23
14 15 16 14 16 15 18 14 10 10 20 18 18 23 25 26 27 23 28 33 30 28 38 42 40 34 32 27 27 26 26 26
15 15 16 12 13 13 15 14 12 5 12 15 18 14 16 12 18 37 43 43 37 37 44 41 32 31 28 27 23 21 19 27

GFSFLT2_500_spd_099.txt.gz
Wind_Speed
24 23 22 22 25 25 27 29 32 33 31 33 35 34 32 33 36 37 38 35 33 45 31 32 27 27 28 30 32 31 33 36
26 24 23 22 24 27 28 29 30 30 31 31 33 34 34 35 41 39 38 32 35 30 25 31 29 28 31 32 31 36 37 37
26 24 22 23 25 27 29 29 26 28 29 28 29 34 36 38 42 42 34 32 37 42 32 29 30 32 34 36 37 37 36 37
28 27 23 24 28 28 28 29 26 26 25 28 32 33 33 36 40 39 31 32 33 40 39 25 30 35 36 37 39 37 34 26
29 31 28 27 29 30 29 28 30 29 27 29 29 28 33 34 33 29 31 30 36 44 29 25 29 31 33 35 38 38 35 23
28 32 31 30 30 29 28 27 29 30 30 30 30 29 31 26 28 28 33 36 37 27 21 25 31 31 31 45 43 42 36 23
27 31 30 33 31 27 27 28 29 28 28 28 26 30 20 17 28 31 35 41 34 27 22 24 28 28 25 28 32 33 23 21
26 31 30 32 27 26 26 26 27 25 27 26 25 26 17 21 25 34 32 34 37 32 24 26 26 27 23 24 27 24 24 23
28 30 31 29 24 24 26 26 27 26 26 24 21 24 16 24 21 35 26 34 37 32 28 22 26 29 28 27 27 26 27 30
31 30 32 27 23 23 22 23 26 24 26 24 21 20 21 20 21 29 30 37 36 30 23 18 26 28 32 31 28 29 31 32
31 29 30 24 21 20 22 22 24 26 27 27 22 20 20 19 25 19 36 45 42 32 29 24 22 26 31 34 31 32 32 34
29 28 25 22 22 22 22 20 22 25 30 32 24 21 19 18 21 31 30 35 38 31 27 28 26 30 36 37 34 32 35 37
27 28 21 22 23 21 21 21 23 28 29 31 27 22 22 18 23 33 35 29 25 30 32 29 29 32 33 34 33 35 35 31
27 26 20 22 23 21 22 22 24 25 25 25 25 23 24 22 27 29 26 22 26 27 35 33 30 30 30 32 30 34 34 25
28 23 20 21 23 23 24 22 23 22 24 21 23 22 25 32 28 29 30 29 25 27 33 36 32 32 32 29 27 27 25 26
28 21 19 22 24 23 24 23 24 21 20 18 21 23 26 24 24 26 31 28 32 30 31 35 36 34 32 19 19 25 27 27
28 23 20 22 22 22 22 21 21 21 25 20 21 24 24 23 27 30 30 28 31 36 30 31 31 23 21 27 30 29 30 30
29 23 21 21 20 20 21 20 20 23 24 22 24 27 25 29 33 32 35 34 33 37 28 33 28 26 27 33 33 32 31 32
29 24 20 21 18 18 19 18 17 20 18 20 23 27 27 26 31 34 36 34 41 43 37 33 26 30 33 37 36 34 33 31
28 22 21 20 17 16 17 16 14 16 16 16 19 20 16 18 25 30 33 34 37 35 31 34 28 31 38 41 37 32 33 31

GFSFLT2_500_spd_105.txt.gz
Wind_Speed
27 28 24 21 20 17 18 18 20 21 20 22 23 23 23 23 26 25 25 24 24 22 23 22 23 22 31 29 28 26 24 24
27 30 25 19 20 18 17 20 21 23 24 25 24 24 22 25 24 22 18 20 24 23 24 26 23 26 34 34 30 28 25 25
25 28 28 24 22 19 19 20 23 25 26 24 24 23 22 25 22 21 23 24 27 26 26 27 27 22 33 37 29 29 27 26
25 28 28 26 24 22 20 22 23 26 25 25 23 23 24 25 25 27 27 27 27 27 27 22 20 26 29 37 30 29 27 28
26 29 29 26 27 24 25 24 25 27 24 21 21 22 23 25 27 28 30 30 27 25 22 19 26 28 34 33 31 30 30 30
26 29 29 27 27 25 25 27 28 29 25 20 19 21 21 23 25 28 31 27 33 29 32 28 28 31 33 33 34 32 30 28
26 27 30 28 26 26 25 29 30 30 26 22 20 20 19 23 27 28 25 31 32 28 31 33 24 28 25 32 31 32 31 29
25 25 30 27 28 26 26 30 31 30 26 22 23 23 21 24 25 27 27 29 21 24 30 35 23 36 25 33 35 33 32 32
24 27 30 27 28 27 27 30 29 27 24 21 22 23 21 24 24 25 30 23 20 21 31 34 29 39 32 27 34 34 34 37
28 28 31 29 28 27 27 29 27 26 25 22 21 22 23 24 26 23 29 19 22 29 28 33 32 33 39 32 33 32 30 28
28 29 29 28 29 28 27 29 26 25 23 21 22 23 26 27 27 23 28 15 22 25 31 34 25 36 39 34 34 35 31 28
30 30 29 28 29 30 29 28 26 24 22 22 22 22 26 27 26 22 24 16 21 24 35 40 35 37 36 35 35 34 34 23
31 32 31 30 30 31 31 28 25 25 23 23 23 22 25 27 24 22 20 23 21 27 34 32 37 33 32 33 33 35 31 25
35 35 32 32 34 32 33 29 26 25 24 23 23 25 26 27 25 22 20 24 22 31 33 32 40 31 33 33 31 30 31 29
36 36 33 35 35 32 33 30 25 26 24 22 24 24 23 26 25 21 22 21 19 22 27 32 38 35 34 30 29 28 31 32
36 35 33 38 37 35 35 30 26 25 23 22 25 25 21 26 25 22 22 20 17 20 24 26 32 32 36 27 27 34 35 39
35 35 35 39 38 36 35 31 26 24 23 23 26 27 24 26 25 20 25 22 16 15 23 34 36 33 27 29 30 31 31 31
31 33 37 37 36 36 36 31 27 22 22 23 26 25 27 26 25 19 27 18 19 16 23 27 26 23 22 22 29 28 24 22
32 33 38 36 36 38 38 29 26 20 21 22 22 25 27 23 24 22 20 26 21 17 27 24 25 21 21 23 23 23 22 23
33 37 40 38 38 38 37 30 24 19 19 17 19 24 19 21 22 21 23 26 23 23 24 28 32 25 27 23 22 25 22 23

GFSFLT2_500_spd_108.txt.gz
Wind_Speed
24 23 21 19 17 16 16 18 18 20 21 21 22 23 21 18 17 19 19 19 22 21 14 15 20 18 21 27 28 30 30 30
23 25 24 21 17 15 16 19 20 22 22 23 24 26 22 19 16 16 17 18 17 18 19 18 21 22 21 23 30 32 32 29
24 24 26 25 19 16 17 20 21 22 24 24 26 24 23 21 18 16 17 18 19 20 23 25 25 26 28 22 31 35 34 30
25 25 27 27 26 17 17 20 21 22 24 26 27 24 22 23 23 21 21 22 24 22 23 26 27 27 27 27 33 38 37 33
26 25 26 29 27 21 21 20 21 22 22 26 27 23 21 22 23 22 23 25 25 23 25 25 28 28 23 26 33 38 36 34
27 26 27 29 27 25 24 21 23 24 22 25 25 23 23 21 24 22 24 25 26 23 22 25 24 23 22 21 32 36 36 34
29 27 28 29 28 26 24 23 25 25 24 24 23 22 23 22 23 23 23 23 27 24 30 30 28 27 28 24 41 34 37 35
30 28 29 29 29 27 25 24 26 27 27 25 23 21 22 23 23 24 24 24 26 26 29 27 30 33 33 28 41 35 37 35
29 31 33 31 30 27 26 25 26 27 28 25 24 23 22 21 23 23 25 26 26 28 26 21 32 35 24 29 36 37 36 35
33 32 34 33 32 27 25 25 27 27 28 25 25 24 23 22 23 25 26 28 25 22 23 25 32 36 38 34 37 40 35 35
33 32 36 36 33 27 27 26 26 27 29 26 25 24 23 24 25 26 26 27 24 18 18 30 27 43 32 38 39 37 38 37
35 34 36 37 33 27 28 27 27 28 29 28 26 24 25 25 26 26 27 26 20 19 26 29 34 36 35 38 39 37 34 36
38 38 37 38 35 30 31 29 30 29 30 29 27 25 26 27 28 28 26 23 21 17 16 21 31 40 36 35 43 45 36 37
41 39 38 39 37 34 33 32 33 30 32 29 28 27 27 28 29 28 26 25 19 22 19 25 26 32 34 35 37 43 37 37
43 41 39 39 41 39 36 33 30 30 33 30 30 28 28 28 28 28 27 23 21 21 23 24 33 36 37 35 35 35 37 32
45 43 41 39 41 42 38 35 31 31 32 30 30 28 29 28 29 27 28 22 21 24 23 22 28 34 31 35 33 34 36 37
46 45 42 40 42 43 40 36 31 31 32 30 29 29 30 30 31 30 27 26 25 23 14 21 29 32 28 39 31 33 34 37
44 43 44 42 42 44 41 37 34 32 30 30 29 29 31 29 30 32 28 26 26 26 21 19 24 23 26 29 24 27 32 34
42 41 39 40 43 46 42 38 37 33 29 29 27 29 28 27 33 27 23 25 28 21 18 18 19 20 28 27 22 21 27 26
46 43 39 41 44 47 42 40 40 33 29 28 27 26 25 27 24 20 22 26 25 24 20 14 20 21 25 19 19 19 18 16

GFSFLT2_500_spd_114.txt.gz
Wind_Speed
20 19 20 18 16 15 16 16 16 17 19 19 19 18 19 19 21 20 20 22 20 24 23 21 21 21 20 17 17 20 22 29
24 22 23 21 19 18 18 19 17 17 19 21 20 19 20 20 21 21 21 21 21 23 21 20 18 19 17 17 18 19 20 27
27 27 27 25 23 19 19 21 18 19 19 22 22 22 21 20 21 21 21 22 23 22 18 19 18 20 20 21 18 15 14 21
30 29 29 28 26 24 21 23 19 20 22 23 22 22 22 22 21 22 21 19 23 25 22 21 20 21 21 21 24 18 18 26
31 32 29 31 29 27 26 25 23 21 21 23 23 23 24 23 21 23 22 20 20 21 24 24 24 25 24 22 23 21 25 27
31 31 30 32 31 28 29 29 24 23 22 23 23 24 25 23 22 22 21 21 20 21 24 24 24 25 28 26 24 26 31 28
31 32 30 33 32 29 30 28 29 24 24 24 23 25 25 23 22 21 21 21 23 21 23 22 22 24 26 25 25 27 30 23
35 30 31 33 33 30 30 31 30 27 25 25 25 25 25 25 23 22 21 21 21 20 22 23 24 26 24 27 29 31 30 21
42 31 32 33 35 31 30 33 31 30 28 27 27 26 26 25 24 24 23 22 20 18 21 23 25 27 30 29 27 24 30 25
39 38 30 32 36 31 31 33 32 29 28 30 29 27 27 25 25 26 24 23 22 22 24 26 26 29 28 23 26 28 26 31
36 39 29 29 35 34 31 32 34 32 28 30 32 29 29 26 24 25 26 25 24 25 27 28 29 27 24 24 25 30 32 34
38 37 35 29 31 34 33 32 31 35 32 31 33 31 30 30 25 25 27 28 27 26 28 28 31 31 26 27 27 31 34 31
39 39 35 32 29 32 34 35 30 36 35 33 33 32 33 32 27 26 28 30 30 29 29 32 32 30 29 31 32 30 39 34
42 43 39 36 32 32 36 36 33 36 37 34 32 31 34 32 28 26 28 31 32 30 29 32 31 30 33 29 36 35 37 39
46 44 42 39 36 33 36 33 35 36 35 36 34 34 32 32 30 28 28 31 32 32 29 32 31 28 23 22 30 40 33 36
47 44 40 40 37 37 35 34 36 37 37 36 36 36 31 33 31 28 29 30 32 34 30 29 29 28 26 30 19 30 32 34
48 43 41 42 42 40 37 36 37 37 38 36 35 38 33 33 30 28 28 30 32 35 33 29 31 29 30 25 24 28 26 30
48 45 43 42 42 42 39 37 35 36 39 37 35 37 35 33 30 30 28 29 32 36 35 33 33 30 29 25 25 26 30 29
50 47 43 44 43 41 39 37 36 37 39 39 34 36 35 33 30 30 28 29 32 37 38 35 27 29 31 28 35 31 28 31
52 48 45 44 42 39 38 37 36 36 37 35 32 34 35 33 29 30 29 29 32 36 35 28 24 25 29 29 23 29 27 27

GFSFLT2_500_spd_117.txt.gz
Wind_Speed
26 22 19 19 16 16 17 17 16 14 13 14 17 17 18 19 20 20 19 21 21 19 20 21 21 20 21 19 13 11 19 23
28 25 21 20 20 19 18 19 20 18 16 14 17 18 19 21 20 20 21 20 21 20 19 19 18 18 16 14 13 15 15 20
29 27 25 22 22 20 20 20 21 21 20 17 17 18 19 21 21 20 21 21 21 20 19 21 17 15 16 20 18 17 19 23
29 29 27 27 26 23 21 21 21 22 23 21 19 18 19 22 21 21 20 21 20 21 19 20 21 18 16 18 21 21 22 21
29 29 29 30 29 26 24 22 22 23 22 23 21 20 20 22 22 22 20 20 19 21 19 19 20 21 19 22 22 20 21 25
28 29 30 31 29 28 27 25 21 23 22 23 23 22 22 22 23 21 21 20 18 19 20 20 20 23 20 22 24 21 24 25
30 30 30 32 33 28 30 27 24 23 23 22 23 24 23 22 22 21 20 19 17 18 21 21 19 21 21 23 23 22 23 26
31 31 30 33 33 30 30 28 27 25 25 23 22 24 24 24 22 21 20 18 17 16 18 18 17 20 22 24 24 25 26 29
35 34 30 29 33 33 32 29 27 28 28 24 22 24 25 24 23 23 22 18 15 17 18 20 19 20 24 24 29 29 33 29
37 37 31 28 30 34 33 31 28 29 30 26 24 24 26 24 24 24 23 21 17 17 18 22 22 23 24 26 27 28 23 22
37 40 33 25 27 32 33 33 28 31 30 28 26 27 27 24 26 25 24 25 20 19 20 22 24 25 27 28 28 25 24 26
39 42 39 27 23 29 33 33 31 31 32 28 27 28 30 27 28 26 26 27 25 21 22 23 25 26 29 29 27 27 27 24
43 39 37 33 28 31 35 36 35 30 34 31 30 28 31 30 31 28 26 28 27 24 23 24 26 30 29 31 29 26 29 34
45 38 37 38 35 29 34 38 37 30 33 36 31 30 31 32 32 29 27 28 28 27 24 24 25 32 31 33 34 33 35 32
47 41 40 42 37 34 34 38 36 31 33 36 36 34 32 35 33 29 28 29 30 29 26 25 27 31 32 30 24 22 20 33
48 46 44 44 40 38 34 34 34 34 36 37 36 35 32 33 32 29 27 28 31 29 28 27 28 30 33 29 27 23 27 26
54 45 46 45 44 41 37 34 32 34 37 37 38 38 32 31 31 28 25 29 31 31 29 28 30 30 33 33 29 26 25 22
50 46 49 46 43 42 39 37 33 34 38 40 39 38 33 32 31 28 25 28 31 32 28 30 33 31 33 35 32 27 27 20
55 52 43 43 46 43 43 40 37 34 36 40 38 37 32 32 33 29 24 26 30 32 28 31 33 32 28 30 30 27 26 29
57 49 51 45 47 45 44 44 39 37 37 38 36 34 30 32 34 27 23 25 29 30 27 31 31 31 26 23 27 22 31 25

GFSFLT2_500_spd_120.txt.gz
Wind_Speed
29 28 28 25 20 18 17 18 18 18 17 17 16 14 14 14 16 17 18 18 17 19 20 20 19 18 18 19 18 17 13 17
26 29 30 26 23 20 18 18 19 20 19 18 19 17 15 14 15 17 18 18 18 18 20 20 20 19 18 20 16 12 18 17
26 29 30 28 25 22 18 18 19 20 21 19 19 18 17 16 16 17 18 19 19 19 19 18 19 20 19 18 15 16 19 19
27 26 30 28 27 25 22 19 20 21 21 20 19 19 19 18 18 18 17 18 19 19 18 17 18 19 19 19 18 18 20 20
31 27 30 28 28 28 25 22 22 22 23 21 19 19 20 19 19 19 19 18 19 19 17 16 17 18 20 21 20 22 22 22
37 29 30 29 29 30 27 24 23 22 23 24 20 19 20 20 19 18 18 18 19 19 17 16 17 19 21 19 18 20 19 22
34 33 31 31 30 31 29 28 26 22 23 25 21 20 21 21 20 18 17 17 19 18 17 15 16 18 19 20 20 21 22 21
30 35 32 33 32 32 31 30 28 26 23 25 24 23 23 23 20 19 18 16 18 18 16 13 14 16 17 19 21 22 23 24
32 33 35 33 32 34 32 30 30 28 25 25 26 25 25 24 21 19 19 18 18 19 17 13 15 17 19 20 22 23 27 29
33 31 30 33 34 35 34 33 29 28 27 27 28 28 26 26 24 21 20 19 19 20 19 16 16 19 21 21 23 24 26 26
36 31 32 30 32 33 33 36 29 28 27 29 31 30 28 27 27 23 22 21 21 22 21 19 18 21 22 22 24 26 28 26
38 35 35 31 31 30 32 30 31 30 28 30 32 32 31 28 27 27 25 25 22 22 24 22 20 22 22 23 25 25 26 28
40 37 37 33 28 28 33 33 35 31 29 32 32 32 31 30 29 29 29 26 27 23 24 24 22 23 23 24 25 26 28 29
41 39 40 37 34 31 34 37 35 33 30 30 30 33 34 32 32 30 30 27 28 25 24 25 25 25 25 26 25 26 27 23
47 45 45 42 40 37 35 35 33 35 34 32 34 38 37 33 33 32 30 27 29 28 25 26 27 26 27 27 27 25 27 24
48 47 45 44 44 41 38 37 37 35 37 37 37 37 38 35 33 33 31 28 29 28 26 26 28 28 28 28 30 25 27 25
56 46 41 50 44 45 39 36 37 34 34 38 38 38 39 39 34 33 32 31 30 28 25 26 29 29 29 30 31 32 29 28
57 53 47 48 45 45 42 41 38 36 36 37 38 39 41 40 37 33 34 33 31 29 26 26 29 29 30 31 30 32 30 29
51 52 55 52 51 46 48 48 42 39 36 39 39 40 42 41 38 35 34 36 32 29 25 26 28 30 30 28 28 29 30 25
49 51 52 51 50 45 47 49 47 44 38 39 40 40 40 40 37 35 35 37 31 30 25 25 28 29 30 27 25 26 24 21

GFSFLT2_500_spd_123.txt.gz
Wind_Speed
29 30 29 30 29 22 20 21 19 17 18 18 18 17 17 15 14 13 13 13 16 17 19 20 20 19 17 16 17 18 17 15
26 28 29 30 29 25 22 20 20 19 19 19 19 18 17 17 15 13 13 14 15 17 19 20 20 19 17 16 16 15 15 14
28 26 27 31 29 25 24 21 20 18 18 20 20 20 18 17 17 16 14 14 15 17 18 19 20 17 17 15 15 16 17 16
31 29 25 30 31 27 25 23 21 19 18 20 21 21 19 17 17 17 16 15 15 17 18 18 18 18 17 14 14 17 20 20
29 33 29 28 31 30 28 25 23 21 20 21 23 22 21 19 18 17 17 16 15 16 18 19 18 17 17 17 16 17 20 21
30 31 31 29 31 31 29 26 24 23 22 23 24 22 20 20 20 18 17 17 16 17 17 19 18 17 16 17 17 16 17 17
29 28 27 26 30 32 30 29 28 25 21 25 24 23 20 22 22 19 18 18 18 18 18 19 19 16 16 14 17 17 17 19
32 34 26 26 27 30 31 32 30 26 23 25 24 24 22 22 22 21 18 18 19 19 18 18 19 17 16 17 17 17 17 17
32 35 34 28 25 26 30 31 30 29 28 26 25 25 25 23 22 22 19 19 20 22 20 19 20 20 19 20 18 18 20 20
30 35 35 33 27 27 29 30 31 32 29 27 26 27 28 24 22 24 21 20 21 22 22 22 21 22 23 22 21 20 20 23
31 36 35 35 30 30 31 32 32 32 31 28 27 29 30 27 23 25 23 23 22 23 23 23 23 23 24 24 23 22 23 24
34 38 36 37 35 34 34 33 32 33 31 28 30 31 31 29 27 26 24 25 25 25 23 23 24 24 24 25 26 24 23 24
38 40 38 38 38 36 32 32 31 32 32 33 33 34 32 31 31 29 28 28 28 27 26 24 23 26 24 26 26 27 26 26
40 41 39 38 36 34 33 35 33 34 36 36 33 33 34 34 36 33 31 30 29 28 28 26 25 26 25 25 26 25 28 28
47 42 43 42 41 38 34 37 41 41 36 36 35 35 37 38 39 35 32 30 30 29 30 29 27 27 25 25 26 26 28 29
59 48 48 46 47 44 42 41 48 43 43 41 33 37 39 41 40 36 34 32 31 31 33 31 29 29 27 26 26 27 30 28
64 50 49 50 50 48 49 50 50 44 40 34 36 39 42 43 42 39 36 34 33 33 35 33 32 31 29 25 27 29 32 34
57 48 49 49 49 47 46 50 42 36 34 35 37 38 41 42 42 40 38 34 34 35 37 36 35 33 29 26 26 28 33 34
52 52 50 51 53 51 49 52 45 41 39 39 39 40 41 40 41 40 39 35 35 37 38 39 36 35 30 27 26 27 31 32
51 49 48 49 48 46 46 50 48 46 43 45 41 43 44 45 42 40 40 39 37 37 40 39 36 35 31 28 26 27 29 29

GFSFLT2_500_spd_129.txt.gz
Wind_Speed
29 31 30 29 27 24 23 22 20 19 18 16 16 15 13 12 13 15 15 14 13 13 15 14 14 15 14 13 13 12 12 10
33 31 30 29 29 24 22 20 20 20 19 17 15 13 13 13 14 15 15 15 13 14 14 14 14 15 15 14 13 13 12 11
36 34 30 30 30 27 23 22 17 20 19 17 16 14 13 14 14 16 15 15 14 12 13 12 13 14 14 15 13 13 13 12
38 34 30 27 29 27 25 23 20 18 19 17 16 15 15 14 14 16 15 14 14 12 12 12 12 13 14 15 16 14 14 14
39 37 30 28 28 31 26 23 19 18 17 16 16 16 16 15 14 16 17 16 14 13 11 12 12 12 13 14 15 16 14 14
43 35 30 30 28 30 29 26 23 20 19 18 17 16 16 16 16 16 17 17 15 15 12 11 12 12 13 13 14 15 15 15
45 39 32 31 29 30 30 29 26 24 21 20 19 18 17 17 18 17 18 17 16 16 14 11 13 12 13 13 13 15 16 16
46 42 37 33 29 28 30 30 30 28 24 23 22 20 20 19 19 19 19 18 18 17 17 13 14 13 13 14 14 15 17 17
52 46 41 37 34 30 31 32 33 32 29 26 24 23 23 22 22 22 21 18 18 18 18 17 15 15 15 15 15 15 17 19
54 52 44 43 37 32 35 35 35 34 34 29 26 26 26 25 25 25 24 19 19 20 20 19 17 17 17 16 17 16 17 20
62 58 49 46 41 36 37 36 36 34 33 31 32 30 30 29 28 29 27 22 20 21 21 22 19 18 19 18 18 18 18 20
66 62 56 49 47 40 41 40 36 35 35 35 34 34 32 31 31 32 31 26 23 23 24 24 23 21 20 19 20 19 19 21
71 68 61 54 46 42 41 40 36 36 37 37 38 36 35 36 35 35 33 30 28 25 26 25 26 24 21 21 21 20 20 22
75 71 65 57 48 44 41 40 41 38 40 39 39 39 39 41 37 37 38 36 33 29 28 27 27 27 25 23 21 23 24 23
76 73 68 60 49 46 44 45 44 38 36 37 39 41 42 42 40 43 42 39 37 34 29 28 29 29 29 26 22 24 25 25
81 75 72 63 52 48 46 47 43 37 38 40 41 45 48 45 48 49 47 45 39 38 34 30 30 29 31 29 25 25 27 26
84 78 71 65 58 49 47 49 46 41 40 43 46 49 51 49 52 59 56 45 43 38 36 35 31 31 31 30 31 27 28 29
82 77 73 67 60 52 51 49 49 45 44 47 49 51 51 51 55 47 38 45 42 40 39 35 31 31 31 31 33 33 29 31
78 76 74 69 63 55 53 51 51 48 51 51 52 52 53 53 51 50 45 45 46 43 35 32 33 32 31 31 33 35 34 33
74 74 70 69 62 57 53 52 54 54 53 52 54 55 57 56 51 47 52 52 47 37 34 32 34 34 33 31 32 34 36 35

GFSFLT2_500_spd_135.txt.gz
Wind_Speed
31 31 28 30 29 24 20 20 18 18 18 17 18 18 18 15 13 11 9 8 9 11 13 12 12 10 11 12 11 10 10 12
35 33 32 33 33 30 23 21 21 19 19 20 19 18 19 18 15 13 11 9 10 11 14 13 12 9 10 11 11 10 10 11
40 38 37 36 37 33 28 23 22 21 21 22 21 20 19 18 17 15 14 11 11 11 13 15 13 10 9 9 10 10 9 10
45 43 42 41 41 37 33 25 23 24 22 20 22 21 19 19 19 17 16 13 13 13 13 15 14 12 10 9 9 9 9 10
49 47 46 44 43 40 36 31 27 27 25 22 22 23 20 21 20 20 18 17 15 14 14 16 16 15 12 10 9 9 10 10
52 51 48 47 45 42 41 37 29 30 28 25 24 25 23 22 22 21 20 19 17 15 14 16 17 17 15 13 10 9 10 11
55 54 51 50 49 45 44 43 35 32 32 27 26 25 27 25 23 22 21 20 19 16 16 17 18 18 17 15 15 12 11 12
58 55 53 52 54 51 47 47 40 35 34 31 28 27 27 27 25 24 23 22 20 19 18 18 18 19 18 17 17 15 14 14
59 58 57 55 57 56 53 50 45 37 35 35 31 28 28 29 29 27 26 24 23 22 20 19 19 19 19 19 18 18 17 17
59 61 59 57 58 59 56 53 50 42 39 36 33 28 28 31 31 30 28 27 25 24 22 21 21 21 20 20 20 19 19 19
61 62 61 59 58 59 60 54 53 48 43 39 32 31 30 32 33 32 30 30 28 26 24 23 24 23 21 20 21 20 20 20
65 64 63 61 58 62 64 60 55 52 48 42 34 34 35 34 33 33 34 32 31 28 27 27 26 26 25 23 22 22 21 21
66 70 67 67 62 65 67 64 57 54 51 43 38 37 36 34 33 34 37 35 32 31 31 31 29 29 29 27 25 24 24 21
74 75 72 72 68 65 68 70 63 54 53 46 44 43 37 32 37 39 40 40 37 32 35 35 35 33 34 32 29 27 27 25
82 81 82 78 73 68 73 74 68 60 60 52 47 44 39 36 40 43 42 43 41 38 37 38 39 39 39 38 35 31 31 28
71 76 88 87 80 76 76 75 72 66 57 54 46 46 43 41 40 45 45 43 45 42 41 41 41 41 43 41 41 39 33 30
61 63 86 93 91 83 78 78 75 70 62 57 51 48 46 46 45 46 47 46 46 47 44 41 41 43 46 49 48 41 37 35
77 82 72 91 94 89 78 78 77 75 67 61 57 49 48 50 50 51 48 44 45 42 47 45 46 49 39 42 50 50 42 36
66 71 78 87 99 91 80 79 78 75 69 62 61 52 50 53 55 54 48 43 41 40 45 38 43 35 37 44 42 40 42 40
38 46 46 77 96 88 64 80 78 77 72 67 64 57 55 56 60 55 51 46 44 44 44 39 38 41 43 39 33 30 33 36